GFSFLT1_250_spd_015.txt.gz
Wind_Speed
43 45 46 47 47 46 46 44 45 49 53 57 59 60 65 69 72 77 83 83 87 87 83 79 80 79 79 81 81 81 82 83
42 42 41 41 41 41 41 43 45 48 50 55 60 65 69 72 76 79 79 79 80 81 82 81 80 81 82 84 85 86 87 87
38 35 34 36 40 41 43 44 47 50 52 56 60 64 69 73 75 78 79 79 78 79 82 83 83 84 85 87 87 87 88 89
30 30 31 32 35 39 41 44 48 53 58 61 63 66 67 68 69 71 74 76 78 79 80 82 85 86 86 87 90 94 99 102
24 26 28 31 36 38 40 42 46 47 50 54 58 62 64 67 69 71 73 74 76 78 80 82 84 85 88 93 99 104 108 110
24 24 27 30 33 36 39 42 45 48 51 54 58 61 63 65 67 70 72 73 75 77 79 81 86 90 96 101 106 108 109 112
28 31 33 37 40 43 46 49 51 54 56 59 61 63 64 66 68 70 72 73 73 75 81 87 93 98 102 108 112 112 113 113
33 35 38 42 45 49 52 54 57 58 60 61 63 65 66 67 68 69 69 72 79 83 88 92 99 104 107 115 114 117 114 113
34 38 40 43 46 49 51 53 55 57 58 60 59 60 62 64 67 70 75 81 86 90 94 101 106 111 118 117 116 113 109 107
37 40 44 47 49 50 52 53 54 55 57 58 61 64 66 69 73 77 82 87 90 95 103 106 111 117 118 114 112 111 106 103
41 43 45 48 50 53 55 56 57 59 59 59 62 65 68 71 76 81 85 91 95 102 106 112 115 117 112 112 111 105 101 96
45 47 50 51 53 56 59 60 61 61 62 62 64 67 70 75 81 86 91 96 101 108 112 114 115 115 115 111 106 99 93 89
49 47 47 49 53 58 60 60 60 61 62 64 67 71 77 82 85 92 96 103 109 112 114 115 112 116 113 107 99 93 88 84
53 55 56 57 59 63 66 65 63 61 62 67 72 77 83 88 94 99 105 109 114 117 116 116 118 116 108 99 92 87 83 80
57 62 65 66 67 69 72 70 67 67 70 72 78 85 90 95 100 107 111 116 117 119 118 117 116 110 100 93 87 82 80 77
62 66 70 70 71 73 76 74 71 74 78 81 87 92 97 103 108 113 118 118 119 119 116 116 110 102 94 88 83 79 76 73
66 69 73 73 75 77 78 77 76 80 84 88 94 99 105 110 114 118 119 119 117 116 115 110 104 94 88 82 79 76 73 71
71 73 76 77 79 81 81 80 82 85 90 96 102 106 112 115 118 119 116 116 114 114 109 103 95 90 83 78 75 73 71 67
75 78 78 80 82 83 83 84 86 90 96 102 108 113 116 118 117 118 116 113 113 109 104 97 91 86 80 75 72 71 68 64

GFSFLT1_250_spd_018.txt.gz
Wind_Speed
39 41 45 47 48 48 47 48 46 44 47 50 53 55 60 64 66 70 78 80 84 88 89 89 86 84 83 81 82 82 83 81
38 40 42 44 45 46 46 44 41 41 44 46 52 57 60 64 67 69 72 76 78 79 79 80 81 83 84 83 83 83 83 79
39 38 37 36 36 36 35 36 39 43 46 50 54 57 60 63 65 66 68 71 74 78 81 82 82 83 82 83 84 84 83 80
30 30 29 31 32 34 36 38 39 41 44 48 51 55 59 62 67 70 72 74 76 79 80 82 82 83 83 82 80 82 88 90
23 24 26 27 28 29 32 36 39 43 47 52 56 59 62 66 69 72 73 75 77 79 80 80 80 81 79 80 87 90 92 99
16 17 21 25 29 34 37 40 44 47 51 55 59 62 65 68 70 71 72 72 72 71 72 73 76 79 85 89 94 96 101 106
18 23 27 30 32 35 39 43 47 50 54 56 60 62 64 65 65 65 65 65 66 67 71 77 82 87 90 94 98 103 107 113
22 24 28 31 34 37 41 45 46 48 49 51 54 58 61 63 64 65 67 68 70 75 79 84 86 90 93 98 104 109 112 114
21 26 30 34 38 40 44 45 47 49 52 56 59 62 63 65 66 67 68 71 74 79 83 88 93 97 102 106 110 110 111 111
28 31 35 37 39 41 46 49 51 53 54 59 61 61 62 64 65 67 69 73 78 84 90 94 98 104 108 111 112 111 109 109
32 35 39 41 44 46 50 53 56 58 60 64 65 64 63 63 66 69 72 78 84 90 96 101 104 109 111 110 109 110 107 105
34 39 44 47 51 55 58 61 62 63 65 68 70 69 67 68 72 76 81 88 93 97 102 105 108 108 109 109 108 109 106 102
38 44 49 53 56 60 64 68 68 68 69 70 71 71 71 73 78 82 89 95 101 105 107 109 107 108 109 108 108 105 100 93
44 49 54 57 61 64 68 71 73 73 74 74 73 73 75 80 84 90 96 102 106 109 112 109 107 109 110 109 104 97 90 86
50 54 59 62 65 69 73 74 76 77 78 78 78 78 82 86 91 97 102 108 111 114 112 108 109 109 108 103 95 88 84 80
55 58 62 65 69 73 77 78 80 81 84 83 82 84 88 92 98 104 109 113 115 112 108 109 109 108 104 95 87 83 79 76
60 64 67 70 75 80 82 82 82 86 85 84 86 88 93 98 104 110 113 115 111 108 110 111 110 104 95 89 83 79 76 73
67 71 74 76 80 84 85 84 87 86 86 88 90 95 101 106 111 115 116 109 107 109 109 109 104 96 91 84 80 77 73 71
73 75 78 81 84 87 85 88 88 88 90 93 97 102 107 112 116 115 108 108 109 109 110 105 97 92 85 81 78 74 71 68

GFSFLT1_250_spd_021.txt.gz
Wind_Speed
39 41 41 49 52 53 55 57 57 56 57 62 64 64 64 63 64 67 67 70 73 75 78 80 81 79 79 80 82 84 84 82
37 38 39 41 42 45 47 47 53 53 56 58 59 58 57 59 61 63 65 66 69 71 73 76 79 82 82 84 85 87 86 86
36 38 41 42 42 44 46 47 47 45 44 46 47 48 50 52 55 60 64 69 72 76 80 82 84 86 87 87 85 84 83 84
35 36 38 38 38 37 33 33 33 34 37 41 45 49 54 58 63 67 71 75 78 81 83 86 87 87 86 84 82 81 79 82
32 33 30 26 24 24 27 30 34 38 41 45 49 53 55 59 60 63 65 67 72 74 75 77 77 76 74 75 78 80 85 87
21 19 18 18 21 25 29 33 36 40 45 48 49 51 52 53 55 59 62 65 67 68 69 68 71 73 74 76 82 87 92 96
15 14 16 19 23 27 32 36 39 41 44 46 49 52 55 57 60 63 64 66 68 69 68 69 71 74 79 82 88 95 98 103
13 14 17 22 26 30 33 36 38 42 45 49 51 54 57 58 60 62 65 66 66 68 70 73 77 82 85 91 98 104 106 109
15 18 22 26 30 34 36 41 45 48 52 55 59 60 63 65 65 69 70 71 70 72 75 80 84 89 96 101 106 108 109 109
21 24 27 31 34 37 43 46 47 51 56 60 65 69 71 72 73 75 76 74 74 76 81 85 90 97 104 108 110 112 111 108
27 30 32 36 38 41 47 50 53 57 61 64 69 72 74 75 76 79 78 77 79 83 88 93 99 104 108 112 114 114 110 107
35 37 39 41 43 47 52 56 59 62 65 69 73 76 75 76 77 78 79 82 85 90 96 101 106 109 113 114 113 110 112 111
43 44 46 47 48 52 57 61 65 69 74 75 78 80 79 80 80 81 83 87 93 98 102 106 110 111 109 109 108 109 109 106
43 43 46 52 56 58 62 67 72 76 78 80 82 82 83 84 84 86 90 95 100 103 107 111 112 108 107 109 109 108 102 97
45 45 49 57 60 64 68 74 78 80 82 84 85 83 86 87 89 94 98 101 105 108 111 112 110 107 109 110 109 101 96 93
49 49 56 62 67 71 75 78 82 84 86 86 86 87 89 91 95 100 102 107 111 112 111 109 109 109 112 107 97 92 90 87
52 57 63 68 71 76 78 82 85 87 86 85 87 90 93 97 101 103 106 110 110 108 105 108 112 111 109 98 92 89 86 81
58 62 66 70 72 77 82 86 86 84 84 87 88 92 97 101 105 107 108 108 105 106 106 113 112 107 102 95 91 88 82 74
64 65 70 74 79 82 85 83 82 85 88 91 95 99 102 106 111 107 102 102 106 108 108 109 105 99 95 92 88 84 75 70

GFSFLT1_250_spd_024.txt.gz
Wind_Speed
28 33 35 38 46 54 52 59 59 65 67 70 75 77 75 74 73 73 74 72 70 68 70 72 76 78 80 82 83 84 86 83
35 42 46 48 52 48 51 53 59 63 66 65 62 62 64 65 64 62 61 62 66 69 72 74 77 80 80 80 81 80 82 80
36 39 42 45 45 48 45 47 50 53 53 54 53 53 51 51 51 55 59 63 67 68 71 72 73 74 74 73 71 68 70 70
38 40 40 40 42 44 43 42 42 43 43 42 41 41 44 49 53 56 59 62 64 66 66 68 70 72 72 72 72 71 70 75
39 39 36 34 33 31 34 35 34 33 34 37 40 42 44 46 48 52 54 58 63 66 67 69 70 73 74 74 74 76 78 79
33 30 30 28 28 28 27 26 29 32 33 35 38 40 42 46 51 54 59 60 63 66 67 69 72 74 74 77 78 79 83 86
29 26 23 24 24 23 24 27 29 31 36 41 44 47 50 53 58 63 67 70 69 68 70 73 75 76 77 78 82 86 90 94
24 24 24 22 23 24 27 30 33 37 42 46 48 53 56 60 64 69 72 75 73 74 75 76 77 80 83 87 93 96 101 104
25 23 22 24 26 29 32 36 40 44 47 52 53 58 63 67 71 74 77 79 78 78 79 79 82 86 92 97 101 105 110 113
23 23 26 29 32 36 39 41 47 51 53 57 59 63 68 73 76 79 82 84 82 81 82 84 88 95 99 103 109 111 112 109
25 28 32 35 40 44 47 49 53 57 58 61 66 70 76 80 82 84 86 84 82 84 86 90 96 102 106 109 111 109 107 108
29 33 37 39 44 48 50 50 55 61 64 68 72 78 80 84 86 88 85 83 85 88 93 97 103 106 110 109 107 104 105 110
36 41 44 46 48 50 50 52 59 66 71 75 78 80 84 87 88 84 82 85 89 94 99 102 106 109 108 107 107 108 107 109
38 41 47 51 51 52 53 59 65 70 76 78 80 84 88 87 83 84 86 90 94 99 103 104 107 105 102 105 108 111 109 107
45 44 46 50 52 54 59 63 69 72 75 81 84 89 86 84 84 87 93 97 99 102 105 106 104 102 103 104 107 109 105 103
50 52 51 51 56 61 65 66 68 75 80 85 91 90 87 85 88 94 99 101 105 105 105 101 104 105 107 102 103 103 100 97
53 56 58 60 64 66 65 71 74 78 84 90 91 89 89 90 94 101 104 108 107 105 101 103 107 109 111 105 100 97 95 89
56 59 64 67 67 67 72 77 81 83 89 93 91 90 91 96 102 106 109 110 108 103 105 106 107 110 105 98 96 95 90 85
59 63 66 70 73 75 79 83 85 90 95 93 93 93 96 101 105 109 111 108 104 103 105 108 103 98 100 98 91 90 86 81

GFSFLT1_250_spd_027.txt.gz
Wind_Speed
37 33 38 39 43 52 70 70 64 58 65 69 71 76 79 80 83 85 81 83 84 83 78 74 72 74 76 77 78 79 78 78
32 33 34 40 40 39 45 48 50 58 62 69 70 70 74 77 79 82 77 72 66 64 67 69 70 71 72 73 73 74 78 82
34 36 34 42 41 47 51 56 60 62 63 65 66 65 64 65 64 62 58 59 60 59 59 61 64 68 71 73 74 75 78 79
33 35 35 40 43 44 43 49 51 54 56 56 57 57 52 51 52 53 53 52 54 57 62 65 68 71 74 75 76 77 77 77
35 37 36 38 42 42 40 46 49 49 48 45 45 43 44 44 46 48 52 54 57 61 64 67 71 75 78 79 79 79 79 79
27 31 34 33 33 34 35 40 40 41 41 40 41 41 42 43 45 49 54 57 61 67 71 76 79 83 82 79 80 80 82 86
29 30 28 28 28 29 32 34 36 39 40 42 42 44 45 46 50 54 60 63 68 73 77 82 86 86 81 80 83 86 90 96
32 33 30 27 26 29 33 36 38 41 43 43 45 49 53 56 59 62 67 71 75 79 85 88 86 81 82 86 91 96 99 104
35 28 25 27 30 30 33 37 41 45 50 52 52 55 56 60 65 67 73 79 80 85 91 88 84 83 86 92 98 102 106 110
31 28 28 28 31 33 34 38 43 50 53 54 56 58 63 67 70 75 80 81 86 91 90 86 86 88 93 100 103 106 110 109
28 27 29 31 34 37 39 43 49 53 57 57 58 63 67 72 74 76 81 86 90 92 89 88 88 92 97 104 110 111 109 107
29 29 32 37 41 43 45 45 48 52 57 59 62 67 70 70 75 80 84 89 94 91 90 90 94 99 103 109 111 111 105 106
30 32 37 40 43 46 49 49 51 54 61 65 67 66 70 75 80 84 87 94 91 91 92 95 99 103 108 111 110 106 104 106
33 34 39 44 46 51 53 54 56 61 66 70 66 72 77 82 85 88 95 94 91 92 94 100 104 108 110 108 101 102 105 107
35 36 40 43 47 51 55 59 62 65 66 70 75 78 83 86 90 94 97 94 94 96 102 106 107 108 105 104 103 105 106 105
42 42 46 48 51 54 58 60 64 67 71 77 81 85 89 90 95 97 94 96 99 104 107 109 106 103 104 104 105 105 104 102
53 51 52 56 55 57 62 65 67 71 78 83 87 90 92 97 99 96 98 101 107 109 109 106 104 102 104 106 105 102 96 97
56 59 59 57 61 66 69 71 74 79 85 89 91 94 99 99 98 100 104 109 111 110 107 104 102 105 106 108 105 100 97 95
56 62 65 66 69 73 77 77 80 85 89 92 94 98 98 98 101 106 110 112 110 109 106 105 106 105 106 101 100 98 97 92

GFSFLT1_250_spd_030.txt.gz
Wind_Speed
51 50 49 45 44 46 50 52 57 61 65 70 71 74 79 79 77 75 76 76 79 80 81 80 78 72 69 70 72 73 75 78
53 52 49 52 50 48 52 54 55 57 59 61 66 73 75 72 71 75 76 77 78 77 75 72 69 68 70 70 71 73 78 81
43 48 47 48 52 50 45 44 50 55 54 57 59 62 67 72 75 74 74 74 72 71 68 68 67 67 70 71 73 78 82 87
39 43 42 42 39 36 38 42 48 53 56 59 60 62 61 64 66 67 65 64 66 67 66 65 65 68 73 75 79 84 88 90
31 35 39 40 40 37 40 44 49 49 54 54 56 57 57 56 56 59 60 62 64 64 65 67 69 74 77 80 86 91 95 92
34 38 40 36 32 35 35 38 42 47 49 48 47 48 49 53 57 58 60 62 66 70 73 74 75 77 80 85 90 94 93 90
39 33 33 27 27 30 30 40 39 39 40 42 43 46 51 54 57 60 63 66 67 68 71 74 77 79 84 89 95 96 93 91
38 35 25 24 29 28 31 33 35 38 41 44 47 49 51 55 58 60 64 67 69 69 72 75 79 84 88 93 96 93 92 93
30 28 29 31 25 25 29 36 39 42 44 46 48 52 55 54 57 62 64 65 66 68 74 80 85 89 92 98 95 93 95 99
27 27 32 25 28 32 35 39 44 45 47 48 51 53 56 60 63 65 66 66 71 75 81 85 89 93 98 95 94 97 101 106
34 33 32 34 33 32 37 42 45 48 51 54 56 59 61 63 66 66 69 74 78 83 87 90 94 99 96 96 99 104 108 109
26 30 34 36 34 35 39 43 47 50 54 58 61 64 64 65 67 71 76 81 85 88 91 96 99 97 98 101 106 109 109 106
32 35 35 37 38 38 41 45 49 53 58 63 67 66 66 70 73 78 82 86 89 92 96 98 97 99 104 107 108 106 106 107
29 32 35 38 42 46 49 52 55 59 62 64 66 68 70 74 77 83 86 89 94 95 94 95 98 105 109 107 104 103 103 104
31 33 34 38 43 48 50 52 56 59 62 66 69 70 72 78 83 86 89 96 94 92 94 98 105 107 105 102 102 103 104 105
32 35 40 44 47 49 52 55 61 63 65 68 71 76 81 85 88 88 96 96 94 95 99 104 106 104 102 103 105 105 105 106
41 44 46 48 49 52 57 62 63 64 67 71 77 81 87 89 90 95 98 95 96 100 105 108 105 103 102 103 106 108 108 104
48 50 51 54 56 60 64 66 66 69 73 78 83 87 89 91 94 99 95 98 101 104 108 106 104 103 106 108 109 109 104 100
55 56 58 60 63 66 68 70 73 76 81 85 88 91 91 94 100 96 100 103 110 113 114 111 109 110 110 111 110 105 99 96

GFSFLT1_250_spd_033.txt.gz
Wind_Speed
45 42 43 41 47 50 49 49 58 59 60 61 66 67 69 72 72 69 66 67 69 70 73 79 79 76 72 72 72 71 73 74
51 51 53 48 42 43 47 49 48 49 54 59 59 64 66 64 64 67 67 69 71 73 76 74 75 71 70 71 72 74 75 78
48 51 46 48 49 53 51 55 54 54 56 55 58 60 61 61 64 68 69 70 71 71 73 72 70 71 72 73 77 79 84 86
45 47 48 48 47 48 51 52 51 49 50 52 52 53 54 58 61 63 63 64 64 66 67 69 71 74 77 79 82 84 84 84
39 38 39 37 36 41 44 45 46 46 48 49 50 55 55 57 58 59 58 59 62 66 70 73 77 78 79 80 80 77 80 85
37 36 37 37 37 39 43 41 43 40 40 41 43 49 50 51 52 54 57 62 66 68 69 66 68 73 75 74 78 81 85 88
41 38 38 39 39 37 39 31 32 35 35 36 39 44 47 51 53 57 62 65 68 66 68 69 68 68 73 78 81 86 90 92
32 34 36 41 41 37 29 28 29 34 37 40 42 46 49 54 57 58 62 64 67 69 69 68 70 76 80 83 87 90 92 95
32 30 30 32 33 25 23 32 31 36 40 45 48 50 53 54 58 61 64 67 69 69 70 72 76 81 83 88 91 92 90 92
29 28 28 29 24 26 31 34 36 41 47 49 50 53 53 56 59 63 68 68 69 71 72 76 82 83 87 93 91 89 93 97
25 26 27 28 30 31 34 38 46 47 48 51 51 51 53 57 63 66 65 69 70 74 78 82 85 86 94 94 91 93 98 103
27 24 25 26 28 32 37 43 46 47 48 49 50 53 57 61 63 65 68 70 75 80 83 85 87 94 96 92 95 99 101 106
26 26 28 31 34 39 43 43 43 46 49 52 55 59 62 65 66 68 70 75 80 84 87 88 93 96 93 97 100 102 106 107
28 29 31 33 37 39 42 42 48 53 55 58 60 64 68 67 69 73 79 84 86 88 90 94 96 93 97 101 102 108 106 102
28 31 32 36 38 39 40 46 54 58 61 63 66 70 69 71 74 79 84 86 88 90 93 97 94 97 101 102 108 108 105 104
31 33 37 38 36 41 50 54 58 61 63 66 69 71 72 76 80 85 87 89 89 92 96 95 99 102 104 107 109 108 108 109
35 38 39 41 45 49 53 58 60 63 66 69 72 73 75 81 85 86 89 90 92 97 96 99 102 104 108 111 112 110 111 112
38 42 44 47 50 53 56 58 62 65 68 71 74 78 81 85 87 89 89 91 96 96 98 104 104 110 113 114 113 113 113 113
43 46 50 53 55 58 62 64 66 69 73 76 79 82 87 89 90 92 94 97 98 98 104 105 108 113 116 116 115 114 115 113

GFSFLT1_250_spd_036.txt.gz
Wind_Speed
37 33 36 44 38 41 45 47 50 53 53 54 54 55 61 66 67 70 70 71 73 73 73 73 71 71 72 71 69 70 73 77
42 42 43 40 38 44 49 54 48 52 53 55 59 54 55 58 61 64 68 68 68 66 66 65 67 69 67 67 70 75 77 77
38 41 42 40 42 45 46 53 54 57 55 57 58 61 62 63 64 60 61 61 61 64 65 65 65 64 66 70 73 72 74 78
28 36 40 46 47 50 49 52 53 54 59 56 56 57 56 56 55 55 55 57 58 60 61 60 62 66 70 73 75 79 81 78
38 33 36 40 39 39 39 40 41 44 47 49 50 51 51 51 49 48 51 52 53 56 60 63 66 68 70 74 77 77 75 79
40 39 35 35 32 35 37 39 42 44 45 43 40 42 45 45 46 49 51 53 56 60 63 65 68 69 72 73 75 76 77 81
39 35 35 37 40 41 42 38 40 38 35 38 37 38 41 45 48 51 55 58 61 63 65 67 71 72 71 73 74 78 82 84
34 36 36 39 38 39 37 35 33 32 28 36 38 41 45 47 52 57 59 63 65 64 67 70 71 71 73 76 80 83 82 84
34 35 37 39 42 37 33 22 20 32 35 37 40 42 48 54 58 60 63 63 65 66 70 71 73 75 79 83 83 83 84 89
40 40 42 43 36 31 26 20 29 35 40 42 45 46 51 56 60 61 62 64 66 70 72 72 75 80 83 83 85 86 90 96
39 39 34 31 31 28 26 26 31 36 40 44 48 51 55 58 59 61 62 66 69 73 72 76 79 84 85 86 87 91 96 96
32 31 28 29 25 25 25 28 31 35 41 48 54 56 54 57 61 62 65 68 72 72 75 80 84 85 88 89 92 95 96 97
31 29 27 23 25 27 28 31 34 38 41 50 52 54 58 63 63 65 69 72 74 76 80 84 86 89 91 93 95 98 98 103
29 27 24 26 28 29 31 34 38 42 45 48 53 58 60 64 67 69 71 74 76 80 85 88 91 94 97 98 101 100 103 107
29 26 28 31 31 30 35 39 44 48 51 55 58 60 65 68 70 71 75 77 80 83 87 91 96 97 98 102 100 103 108 107
29 30 32 32 32 35 37 43 47 51 55 60 63 66 69 70 73 76 78 80 85 89 92 96 98 99 101 100 104 108 107 110
34 33 34 35 38 41 46 48 52 57 62 66 67 70 72 75 76 79 81 84 88 92 97 96 98 101 100 103 107 108 110 113
37 36 38 40 43 46 50 53 58 62 65 67 70 73 75 77 79 82 85 89 95 96 98 100 103 103 105 109 111 111 114 117
39 41 42 44 47 51 55 60 63 65 67 70 73 76 78 80 83 87 90 94 96 101 102 103 104 105 109 114 114 114 116 117

GFSFLT1_250_spd_039.txt.gz
Wind_Speed
37 33 41 46 45 43 41 49 43 53 57 51 53 56 62 60 59 62 63 67 69 70 72 73 74 69 68 69 67 67 64 65
29 35 34 32 44 43 43 44 45 51 53 55 54 55 55 54 59 62 66 70 69 70 66 67 64 62 66 64 63 63 65 67
34 29 30 33 36 35 44 41 41 44 47 51 57 58 55 61 65 65 65 65 65 67 66 60 60 60 59 60 62 65 67 70
30 28 31 35 40 43 42 42 45 48 51 53 57 61 63 59 60 63 64 61 60 58 54 54 55 58 60 63 65 67 72 74
27 28 30 28 32 38 40 42 44 45 45 48 47 47 50 50 48 48 47 49 46 50 52 56 58 61 64 66 69 71 73 70
33 32 31 33 33 32 35 33 34 36 40 41 39 43 42 42 42 42 44 46 50 53 58 61 63 66 66 68 72 73 73 74
33 33 37 37 38 34 33 35 38 36 34 39 42 44 41 37 38 42 46 49 53 58 61 64 67 67 69 72 75 75 75 79
31 30 28 29 31 33 33 35 36 36 35 39 40 38 40 41 44 48 51 53 58 62 65 68 69 71 73 75 76 75 78 82
30 29 28 29 31 34 35 36 36 30 32 37 33 36 41 47 53 56 58 59 60 65 68 69 72 73 75 77 77 80 83 86
26 29 32 34 35 38 38 37 34 27 28 33 39 40 47 52 56 58 61 60 64 68 71 72 72 74 76 79 82 84 85 89
33 35 34 34 34 35 34 33 32 32 36 38 40 45 47 52 57 59 59 61 68 72 74 74 75 75 79 82 85 87 88 92
39 37 35 35 33 31 31 33 29 30 32 38 41 44 46 52 55 55 60 66 73 73 75 76 76 80 83 87 90 91 94 94
42 37 36 34 33 31 31 27 26 27 30 33 37 43 51 52 53 59 66 72 72 74 77 79 81 82 86 89 92 94 96 99
42 35 33 33 33 31 31 27 29 33 36 39 43 49 50 55 61 66 70 71 74 77 81 83 86 88 90 92 95 96 98 102
31 32 31 31 33 35 32 32 36 37 40 45 49 53 57 62 65 67 69 72 76 79 83 86 87 90 94 95 97 99 101 105
31 33 33 32 36 37 36 37 40 43 48 51 54 59 62 65 68 71 75 77 80 84 87 87 90 93 97 99 99 102 106 107
40 33 34 35 38 41 43 45 46 48 52 55 59 62 66 69 72 75 78 81 83 86 88 90 93 96 100 101 104 105 110 109
39 41 41 42 42 45 47 49 50 53 56 60 64 67 70 73 76 79 81 83 85 87 90 94 97 100 101 103 106 109 110 112
45 45 46 47 46 46 48 51 53 56 60 64 68 71 74 76 79 82 81 85 87 89 92 95 98 101 102 106 109 111 112 116

GFSFLT1_250_spd_042.txt.gz
Wind_Speed
17 30 33 28 31 45 40 43 49 48 49 50 47 49 46 46 53 58 61 62 62 65 66 68 72 73 71 70 69 67 64 61
27 27 30 36 39 51 42 45 46 44 48 53 44 46 52 52 51 59 63 64 68 64 70 74 75 71 71 67 64 61 59 60
30 26 26 32 36 41 48 46 45 45 46 47 49 61 66 71 70 70 65 66 67 69 70 69 69 64 62 58 56 60 61 63
28 30 30 30 33 32 38 48 50 46 46 48 53 49 50 54 59 61 63 63 63 61 63 65 58 56 56 58 62 63 64 68
22 31 35 34 31 33 36 38 39 43 47 47 53 57 55 57 55 57 55 54 54 54 55 53 53 55 57 63 66 67 70 72
29 27 28 31 35 34 34 33 36 37 42 46 46 47 51 51 53 51 51 51 52 51 50 52 55 59 62 66 69 71 73 76
21 24 28 31 33 34 38 33 36 34 35 39 43 41 42 46 50 51 51 48 47 49 52 58 61 64 68 70 70 74 78 79
30 32 33 34 36 36 36 39 39 36 34 33 36 41 40 43 44 49 47 47 52 56 61 64 66 69 70 70 76 78 79 79
31 33 34 34 32 32 33 32 32 33 31 27 23 35 39 36 41 46 52 53 56 61 65 67 68 70 72 76 81 83 79 80
26 27 30 32 33 34 36 37 35 36 33 32 36 30 42 40 48 52 56 60 61 63 65 66 69 73 76 83 86 83 84 84
30 32 32 33 34 35 35 38 38 37 35 35 42 48 48 47 51 54 56 60 62 64 66 67 71 77 83 86 85 86 88 89
34 34 34 34 36 37 38 38 39 38 37 38 49 48 46 50 52 54 57 60 63 65 66 69 77 82 84 85 86 88 92 94
38 38 39 37 37 40 41 38 37 40 40 42 50 55 53 50 50 54 59 63 65 68 70 77 81 84 84 86 89 92 96 97
41 40 42 42 43 39 38 39 39 40 41 44 44 45 46 49 54 59 63 64 68 72 77 82 82 84 87 89 93 96 97 100
42 39 37 36 36 37 39 42 42 43 44 45 45 47 50 54 58 63 67 70 73 77 79 83 85 88 90 92 96 99 99 101
33 31 32 37 38 39 41 44 44 44 43 48 51 52 55 59 63 67 71 74 77 79 82 85 87 91 93 95 98 100 102 105
37 39 39 39 39 41 41 39 43 47 51 54 55 57 60 64 68 71 74 77 79 82 85 89 91 92 95 98 99 100 104 106
39 39 41 42 43 42 42 44 47 50 54 57 60 62 65 67 70 73 76 79 82 85 87 89 92 95 96 98 100 102 103 106
39 40 41 44 46 47 47 47 48 49 51 54 58 62 65 68 72 76 78 82 84 86 89 92 95 97 98 99 101 102 104 108

GFSFLT1_250_spd_045.txt.gz
Wind_Speed
25 23 24 29 32 39 37 40 40 40 57 55 55 56 49 44 52 54 57 55 58 61 63 66 65 65 73 75 77 75 76 72
20 14 19 25 17 25 33 26 36 48 43 40 40 39 43 57 57 57 60 60 57 58 63 67 75 78 82 73 70 68 66 63
28 20 19 31 30 31 31 36 37 39 42 41 46 55 58 56 53 53 55 59 64 71 77 79 79 79 77 71 67 61 61 62
34 29 28 29 32 37 38 39 43 40 43 46 44 45 50 57 61 63 66 66 62 64 67 69 70 70 66 65 62 60 60 64
27 36 32 30 37 34 36 39 42 42 45 45 46 50 54 54 57 59 62 66 69 68 67 66 63 61 61 60 61 62 66 69
27 27 29 33 35 35 36 34 35 36 41 49 53 56 57 60 62 64 66 65 63 63 62 60 59 60 59 60 62 67 71 76
26 26 25 25 31 36 39 39 37 41 41 41 44 46 49 50 46 45 54 60 61 57 58 59 55 57 62 63 67 73 75 77
27 28 29 28 28 30 34 35 37 40 41 42 43 45 46 41 38 47 53 58 58 58 57 54 57 64 68 71 73 77 78 79
32 34 35 36 36 37 37 39 40 40 42 34 35 44 45 40 42 45 57 56 53 56 56 59 64 70 75 76 76 79 81 83
32 35 36 35 36 36 37 37 36 38 38 31 41 40 45 47 50 53 54 53 53 56 59 67 71 72 72 76 79 82 85 86
31 29 30 31 31 32 33 35 36 36 40 43 49 47 46 53 54 53 51 50 56 62 66 67 68 73 77 80 82 86 89 92
32 33 35 35 34 34 37 38 39 39 41 41 44 46 47 57 60 60 61 60 63 66 69 69 72 76 80 84 86 88 94 95
37 37 37 37 38 39 41 42 44 44 43 44 44 46 45 48 58 62 62 63 65 67 67 70 75 80 84 86 89 92 96 94
41 42 42 41 42 42 44 45 44 44 44 43 43 43 45 49 53 60 70 73 72 70 71 74 80 82 86 88 92 93 95 98
41 43 43 42 42 41 39 39 40 41 41 43 44 47 50 52 56 60 62 65 67 71 74 78 81 84 88 89 90 91 95 99
34 36 37 38 37 38 38 41 44 45 41 41 41 45 49 52 56 60 64 68 71 74 77 81 83 86 87 90 92 93 95 96
38 38 37 37 39 40 42 43 43 41 44 47 50 50 52 57 60 64 67 70 73 76 80 81 82 85 88 91 92 90 93 97
40 41 41 41 41 41 40 39 41 45 48 51 53 55 55 57 60 63 67 69 71 72 76 80 84 87 89 91 89 92 97 101
38 42 41 39 38 38 39 41 42 44 43 42 43 45 47 49 52 56 61 66 70 74 78 81 85 87 86 89 93 98 103 107

GFSFLT1_250_spd_048.txt.gz
Wind_Speed
14 21 27 34 37 45 46 50 56 52 47 54 55 56 56 55 59 53 55 47 50 51 56 61 58 57 62 66 69 74 75 85
18 16 20 22 22 27 39 42 41 46 47 55 63 58 54 61 60 50 53 55 56 57 58 62 66 68 67 70 74 80 79 79
22 21 18 18 25 25 28 33 34 34 37 36 43 50 53 56 57 60 62 60 56 58 62 65 63 69 76 80 80 80 81 79
25 27 24 22 19 26 27 30 32 32 35 40 42 41 46 48 52 51 54 61 66 67 70 69 73 75 78 79 76 75 74 73
30 26 28 26 28 35 34 37 39 42 43 43 43 48 55 54 53 52 50 52 56 59 61 66 68 70 70 72 75 74 71 67
28 29 31 30 29 33 38 39 39 42 45 49 48 48 52 56 56 57 59 62 67 70 70 71 68 71 71 73 72 72 70 67
43 32 29 33 30 32 37 36 39 42 43 43 41 43 48 49 48 50 50 56 63 62 64 67 65 67 71 71 70 68 68 72
38 43 39 29 27 30 29 34 40 41 44 43 45 45 45 48 48 45 49 49 48 56 62 73 73 72 72 72 70 70 73 78
41 42 35 29 32 33 32 32 34 35 37 38 40 44 50 52 50 45 49 44 48 62 66 69 72 71 69 70 74 72 78 84
40 45 44 41 44 45 44 42 42 42 43 44 44 36 41 47 45 51 52 48 54 60 67 75 77 76 73 71 72 83 83 82
35 37 38 40 41 44 48 46 44 43 40 42 41 42 46 48 51 53 54 57 57 64 70 73 75 73 69 75 80 84 85 88
36 37 37 37 36 36 36 41 39 39 43 43 43 45 48 52 52 59 58 59 61 66 69 72 72 74 78 82 84 85 86 90
35 39 40 37 38 40 38 42 42 41 45 44 48 46 49 51 49 51 53 56 65 70 71 73 75 77 80 83 83 87 89 93
25 32 34 37 40 42 42 44 43 42 46 48 50 47 46 43 46 51 52 55 59 62 68 76 81 84 85 87 88 89 91 95
23 25 27 30 34 36 37 38 40 40 39 42 45 45 40 42 48 51 54 57 60 63 66 70 73 77 81 85 87 87 89 92
28 27 25 28 29 31 36 38 39 36 32 38 42 46 47 50 52 52 55 58 59 61 64 68 71 74 76 78 79 82 87 91
25 28 26 31 32 31 33 33 36 37 43 43 46 47 50 50 54 57 59 61 63 64 64 64 64 67 71 76 80 84 87 89
27 28 26 27 32 32 35 37 37 39 41 42 45 46 46 46 47 48 49 52 54 57 60 63 67 71 75 78 80 84 89 94
31 27 27 22 24 28 32 38 40 41 42 44 46 47 48 50 51 52 54 57 59 63 66 68 70 72 74 79 85 91 97 101

GFSFLT1_250_spd_051.txt.gz
Wind_Speed
19 22 25 31 40 41 48 53 55 56 59 58 56 56 54 58 58 52 48 48 54 50 51 53 51 50 54 58 60 65 68 72
11 16 22 30 36 42 45 49 53 55 58 57 48 56 55 52 52 56 57 58 58 59 59 58 57 59 60 63 68 70 69 71
18 14 14 17 27 41 45 45 52 53 53 59 59 48 50 53 55 52 53 58 60 64 60 60 62 66 67 66 66 77 82 79
20 22 23 19 16 24 31 35 38 49 45 39 42 44 40 41 44 49 59 58 55 60 64 66 69 71 71 72 79 79 74 73
23 26 25 21 23 19 22 30 29 33 33 36 38 40 42 44 46 49 52 53 52 52 59 61 62 66 67 69 70 71 72 73
28 26 30 33 32 29 28 29 27 30 34 38 41 45 47 52 51 55 56 58 60 63 64 65 65 63 67 74 72 73 74 79
33 30 28 28 29 33 31 30 34 38 39 41 49 51 56 56 55 55 55 58 61 65 64 60 61 74 79 77 77 79 81 79
37 37 37 30 30 31 35 33 37 38 44 47 48 50 53 57 59 57 49 47 53 56 51 53 60 68 69 69 72 74 76 80
42 41 39 40 41 34 22 29 32 35 38 42 45 48 50 54 53 51 53 56 55 53 54 57 60 65 68 71 74 78 80 82
41 43 44 43 42 42 34 34 36 36 37 40 42 46 49 51 55 56 59 61 57 56 57 60 61 65 69 73 76 77 79 83
27 34 45 50 47 46 46 44 44 46 51 56 53 52 48 50 52 54 57 55 55 58 64 67 68 70 74 76 79 82 84 86
18 24 31 36 37 38 42 26 31 40 34 39 38 38 42 49 47 58 54 55 58 62 65 68 73 75 77 77 78 80 81 84
23 21 22 28 35 35 36 33 25 47 34 40 40 36 35 36 39 55 57 61 65 65 68 68 68 69 71 77 83 86 88 90
20 21 20 24 25 28 33 37 40 43 41 45 41 35 47 59 55 63 65 63 64 63 65 65 65 67 69 71 73 78 82 84
19 21 25 25 26 23 29 35 42 41 45 51 50 46 52 60 62 61 60 61 62 62 62 65 68 70 71 72 74 76 79 79
23 21 18 21 20 26 29 33 38 42 49 51 50 49 52 54 55 58 59 61 62 65 65 66 67 69 70 69 68 70 73 77
32 24 22 24 25 15 16 18 24 33 40 42 44 46 50 49 51 54 55 56 57 57 57 58 59 62 63 66 71 75 77 79
34 34 29 23 22 22 17 16 21 25 26 31 37 42 45 48 51 52 53 54 55 57 59 61 63 65 68 70 72 74 77 79
39 35 33 30 26 28 28 26 27 28 29 28 31 33 39 44 48 51 54 55 57 60 62 64 65 66 67 70 73 76 77 78

GFSFLT1_250_spd_054.txt.gz
Wind_Speed
23 29 32 29 33 33 38 47 60 71 77 76 68 64 66 59 59 62 61 60 60 56 53 56 54 54 61 63 63 58 59 61
20 22 24 26 27 29 35 39 50 59 72 68 60 51 54 60 66 65 60 57 59 62 62 60 58 61 64 61 61 64 64 65
19 17 17 21 25 27 31 39 41 47 58 67 59 53 56 56 58 57 55 59 58 59 58 56 57 61 64 65 66 68 65 68
22 18 12 15 15 18 30 35 40 45 45 43 46 53 56 55 56 53 47 52 60 64 66 65 69 71 70 71 74 74 76 74
18 22 16 15 16 12 12 22 30 33 37 40 43 49 52 48 47 51 58 60 57 55 56 59 64 67 71 72 71 70 70 71
27 17 21 19 22 22 17 16 19 22 26 28 27 31 35 37 39 42 47 51 55 59 61 62 67 67 69 72 75 82 77 76
33 30 22 24 23 24 26 23 24 27 27 27 32 36 38 37 45 51 56 57 60 63 66 66 67 70 69 73 76 81 77 77
27 36 30 25 28 30 27 28 28 28 31 34 34 38 44 46 47 49 52 56 60 62 64 64 69 67 69 69 70 71 75 76
26 35 43 37 34 29 30 34 34 39 36 37 36 38 41 44 48 50 50 52 57 62 63 65 65 62 61 63 67 70 75 77
20 26 31 46 42 38 38 39 38 34 32 31 32 35 38 42 46 47 51 55 58 61 61 63 62 62 63 66 68 73 77 78
23 25 29 36 41 41 43 45 45 39 37 37 32 35 38 33 33 35 38 44 40 56 56 60 59 59 61 65 71 74 76 81
15 24 30 29 35 41 41 38 35 31 38 41 36 31 24 31 37 43 42 38 33 42 49 58 58 60 64 70 74 78 79 77
12 16 19 26 31 30 35 38 36 33 37 35 39 40 35 38 30 51 37 46 50 57 63 68 72 72 78 74 72 73 74 76
16 11 14 21 25 29 32 35 36 37 40 46 42 47 43 42 42 50 47 49 52 63 69 73 78 78 76 74 76 76 77 80
24 20 11 12 16 27 31 32 36 39 41 46 46 51 50 49 49 55 60 67 67 71 74 78 77 75 73 74 77 79 78 75
28 27 20 16 11 13 20 31 33 38 44 46 48 51 52 50 53 59 66 70 71 74 74 71 69 70 70 70 71 72 73 75
26 30 29 28 22 15 16 16 20 31 32 31 35 34 36 34 46 54 61 65 67 69 69 70 70 70 71 72 73 74 75 76
33 31 29 30 27 26 21 19 17 21 23 27 30 35 43 53 58 53 46 49 46 44 44 40 42 46 50 55 63 69 73 76
39 36 33 32 30 31 31 29 26 24 25 29 32 34 37 39 40 41 39 37 40 41 42 42 47 50 54 55 57 63 69 71

GFSFLT1_250_spd_057.txt.gz
Wind_Speed
60 61 56 52 51 54 55 62 63 62 65 68 80 81 72 71 73 69 64 64 66 64 57 57 56 61 59 59 60 62 61 62
34 53 60 58 60 54 53 53 61 62 69 75 73 75 78 75 72 72 73 70 64 64 61 61 60 57 56 58 62 64 69 70
17 21 32 39 44 54 59 51 44 40 50 74 74 76 75 75 77 75 77 76 69 61 63 64 62 61 64 65 68 66 64 65
19 19 24 25 27 34 39 36 33 35 34 42 61 72 76 82 79 70 64 64 60 49 56 51 52 54 57 59 61 62 66 70
25 18 25 23 22 22 26 24 27 26 28 32 41 50 70 65 65 65 65 51 52 51 54 56 56 55 58 58 62 67 69 70
26 24 23 24 23 20 20 21 21 28 27 31 35 36 41 50 56 52 47 47 44 46 49 52 55 60 60 61 65 66 69 71
25 30 26 24 26 24 24 21 21 19 17 18 23 29 30 30 33 36 41 45 48 49 51 59 61 58 59 60 63 66 68 72
24 27 30 29 23 27 27 25 27 22 19 22 23 26 29 33 36 37 40 43 45 48 49 51 51 55 56 60 63 65 62 63
12 19 28 33 33 28 27 33 33 30 27 28 31 34 34 36 36 35 39 41 43 45 45 47 49 51 53 53 53 51 56 59
9 12 19 26 34 38 36 32 33 35 35 32 30 34 37 38 35 36 35 36 36 38 44 47 51 52 54 51 51 51 55 59
21 13 12 17 21 28 37 45 42 39 38 39 37 36 40 39 41 42 39 36 41 44 43 48 51 54 54 50 47 56 64 68
28 22 18 15 17 18 24 32 37 46 47 48 49 44 46 46 46 46 41 32 36 37 44 48 51 54 57 62 68 70 76 79
27 26 20 16 13 15 19 22 29 38 42 45 45 44 47 46 47 46 37 33 40 48 48 50 53 61 65 71 74 78 79 81
32 28 24 25 20 16 13 18 22 27 32 35 37 41 44 40 38 40 45 48 45 48 50 60 65 63 68 73 81 84 86 82
36 33 26 29 26 23 20 19 19 22 26 32 37 40 40 43 40 44 48 54 57 55 62 66 64 71 79 83 82 77 71 73
27 27 32 34 27 26 24 21 19 17 20 28 32 37 43 45 52 53 54 57 57 60 64 68 73 76 75 75 63 55 59 58
32 26 36 35 33 27 19 21 21 23 23 23 23 27 34 39 42 46 48 51 54 58 60 61 64 63 60 57 54 51 49 52
38 41 38 41 36 35 31 22 19 20 21 23 25 29 33 35 37 41 43 45 49 52 52 57 55 56 55 51 52 54 58 60
42 42 44 40 40 36 33 35 29 28 26 27 29 29 30 31 35 38 40 42 45 51 51 52 55 56 56 59 62 63 64 65

GFSFLT1_250_spd_060.txt.gz
Wind_Speed
61 62 53 55 49 52 51 50 47 55 49 45 43 55 67 68 63 63 62 60 59 59 59 60 59 61 60 60 59 60 57 62
22 50 64 59 56 56 56 52 50 51 59 55 59 54 56 61 63 60 66 65 67 71 69 70 72 70 61 65 69 62 64 65
20 25 55 66 62 63 62 57 58 57 58 59 61 58 57 64 62 68 72 73 74 69 66 70 70 70 62 60 61 63 58 54
20 19 25 41 60 74 67 69 63 59 57 57 63 60 73 69 69 72 69 68 68 68 69 64 65 63 63 63 63 54 52 54
21 23 22 24 27 33 51 68 70 69 68 64 63 56 55 60 70 70 67 67 70 67 65 66 61 63 62 56 55 58 56 55
15 21 24 20 22 23 22 26 35 44 49 52 57 51 42 42 42 52 66 67 55 59 53 51 56 64 59 54 57 58 58 62
14 16 20 26 21 20 21 20 23 25 27 30 30 31 31 31 34 37 40 43 46 52 59 54 59 57 58 58 58 60 63 62
18 15 15 22 27 25 27 24 22 21 24 27 28 25 27 30 32 35 35 37 39 44 48 52 56 55 54 57 56 59 58 57
23 19 16 13 22 29 25 27 29 27 27 25 25 26 27 30 31 33 38 39 42 46 48 50 51 51 49 48 51 52 55 56
32 24 18 16 14 24 35 32 29 28 32 33 35 34 32 34 38 40 40 42 42 44 47 48 47 47 48 50 53 50 46 47
27 28 25 18 14 16 20 32 40 38 36 34 34 36 37 39 37 38 40 42 43 46 49 51 55 54 57 58 56 55 55 59
26 27 30 25 18 15 15 19 23 31 46 41 39 40 40 41 43 46 47 49 48 51 53 53 50 47 48 51 57 60 64 61
24 26 24 25 21 21 18 16 20 23 25 34 42 46 49 50 52 49 48 47 47 50 48 48 45 51 54 52 59 59 63 68
27 24 26 25 24 23 22 18 16 17 24 27 31 34 37 39 38 37 38 41 40 39 44 41 48 54 57 55 53 63 66 72
26 26 26 26 29 30 29 24 21 18 16 20 27 29 31 34 36 37 36 34 37 41 45 47 54 57 55 58 61 66 70 74
31 26 26 27 30 29 35 34 28 25 22 19 19 19 20 25 29 30 33 36 41 44 46 49 51 53 52 56 61 61 64 64
38 33 32 28 32 29 28 35 32 30 28 25 24 25 24 25 27 29 32 30 34 38 39 42 45 50 55 56 55 53 57 61
43 37 36 36 36 28 27 30 32 33 33 33 31 26 26 29 30 31 32 30 32 36 36 39 42 45 47 51 56 60 62 65
47 43 43 42 42 39 37 37 35 35 31 34 36 35 30 30 33 37 38 40 42 44 45 47 49 50 54 55 57 57 60 64

GFSFLT1_250_spd_063.txt.gz
Wind_Speed
18 39 47 44 44 47 42 38 42 45 43 36 33 43 53 48 44 46 52 52 50 47 51 52 54 49 51 52 57 61 65 65
26 24 48 57 51 48 53 47 42 42 47 47 38 37 38 51 51 44 46 44 45 48 54 59 59 62 63 61 62 66 67 64
28 29 36 54 58 56 52 51 56 50 47 46 46 46 48 43 50 53 54 57 61 57 59 59 63 65 65 67 70 63 60 56
24 32 39 53 62 65 59 57 56 59 56 53 51 49 48 51 53 50 53 54 59 62 62 67 62 61 64 63 59 49 51 51
10 16 25 28 38 40 62 56 58 61 58 60 61 62 55 53 55 57 61 58 57 61 67 63 48 57 52 52 41 46 47 48
18 11 11 22 25 27 34 41 57 59 61 62 62 57 64 62 63 59 61 65 59 52 51 53 50 44 42 44 44 47 49 51
23 15 11 11 20 25 24 26 29 28 31 40 49 54 60 65 60 62 59 54 46 39 38 38 40 41 41 46 50 53 53 57
26 23 14 9 14 22 21 24 23 20 21 25 29 34 38 36 39 36 35 34 38 40 39 40 43 44 49 50 51 53 54 54
20 23 24 16 8 17 23 25 27 26 25 24 24 28 32 34 35 34 35 36 37 38 42 46 44 47 50 49 49 52 54 53
25 25 20 20 16 8 14 27 26 27 28 28 27 29 33 32 34 34 36 38 40 46 48 47 43 42 44 46 49 54 53 55
24 24 23 17 17 16 9 13 26 35 34 32 31 33 36 36 39 38 38 37 39 42 42 42 42 47 49 52 53 52 51 50
24 21 22 21 17 13 17 13 10 17 25 37 42 41 38 39 38 36 38 37 36 40 44 48 49 50 51 53 55 58 58 54
21 22 20 21 22 19 18 18 18 13 12 20 26 31 43 47 43 42 42 44 44 45 46 45 48 51 50 52 49 46 44 48
26 24 24 24 21 21 21 21 20 20 18 15 16 21 27 33 39 41 43 44 42 40 41 44 50 51 50 46 45 46 49 47
32 27 28 28 25 23 22 23 25 23 21 19 18 18 19 22 26 29 31 33 36 40 42 45 43 40 40 39 40 44 53 49
36 34 29 32 31 29 25 25 26 24 24 24 22 21 22 21 19 19 19 20 24 26 29 32 33 35 35 35 35 37 42 44
44 40 39 34 35 34 32 30 28 26 26 28 27 27 27 27 26 24 25 26 28 28 31 32 34 35 36 35 39 41 45 47
50 49 47 44 37 35 36 37 35 33 33 34 32 32 33 34 34 33 31 29 29 32 34 35 38 42 44 45 47 48 53 55
51 51 50 50 48 46 40 38 38 42 39 41 41 37 36 40 43 42 41 41 43 43 40 40 41 44 46 48 52 53 55 59

GFSFLT1_250_spd_069.txt.gz
Wind_Speed
25 30 38 34 40 40 36 35 32 31 36 42 43 42 42 38 35 36 36 33 33 32 30 30 33 36 37 36 36 38 41 46
25 31 43 42 47 45 44 36 35 36 36 45 48 44 43 45 43 44 44 40 36 36 35 36 36 38 36 40 39 39 42 46
12 26 38 48 51 50 45 50 35 33 42 39 43 49 52 46 44 44 49 50 48 43 41 42 38 36 31 35 39 46 49 55
16 14 30 46 51 58 54 50 51 38 39 48 48 47 46 53 51 47 48 50 50 53 45 42 39 39 44 44 46 50 58 60
20 15 10 38 46 54 62 55 53 57 48 47 50 43 51 47 43 43 42 41 43 40 45 46 49 52 55 50 52 55 62 64
15 19 17 11 25 45 50 63 58 55 55 58 52 58 49 46 47 47 42 45 45 47 44 44 44 47 47 49 54 57 63 60
15 17 18 16 12 17 38 46 56 59 63 63 60 55 60 53 55 53 57 51 49 51 52 52 52 55 57 60 60 59 59 59
20 18 21 17 15 12 14 27 35 46 53 61 62 68 63 63 65 63 60 53 54 56 57 60 59 59 59 61 62 58 54 49
19 21 20 16 15 15 10 10 20 30 31 35 41 52 60 53 59 57 58 57 58 55 56 55 57 51 50 49 49 49 46 47
18 19 22 17 14 16 13 10 9 16 24 26 28 27 30 37 38 35 37 34 36 38 37 37 36 34 34 35 41 45 47 51
22 18 22 22 14 12 14 11 9 7 12 22 27 29 28 28 28 30 30 29 29 32 32 32 33 37 39 41 43 45 50 51
28 21 21 22 23 16 13 10 10 8 8 9 15 26 29 28 30 33 35 36 39 39 40 44 47 48 50 52 52 52 53 54
28 28 27 29 23 25 19 17 14 11 10 9 11 12 16 23 32 39 41 39 38 41 42 45 48 48 49 51 53 56 56 56
34 29 28 27 29 28 25 22 18 17 14 14 13 13 14 15 15 20 27 32 37 44 49 49 50 53 52 53 55 59 61 60
35 35 35 37 31 27 28 27 22 23 23 21 18 20 19 14 15 16 16 17 20 25 30 35 42 49 51 50 50 49 48 47
41 42 39 36 34 34 31 32 33 32 30 30 30 25 24 25 23 21 21 20 19 19 20 22 25 26 26 27 27 29 31 34
47 45 42 41 40 39 37 38 39 34 37 36 31 33 33 29 30 34 31 29 28 28 27 25 28 30 32 35 36 37 37 40
50 47 43 45 45 44 45 45 44 41 39 40 42 39 38 37 34 36 39 39 37 37 40 41 40 39 39 40 42 44 44 45
54 51 45 46 50 50 49 44 43 46 46 45 40 42 42 45 43 43 43 43 43 43 43 47 47 48 48 53 52 50 49 51

GFSFLT1_250_spd_072.txt.gz
Wind_Speed
19 13 28 31 24 28 42 46 36 36 21 37 43 52 47 44 42 39 33 34 35 34 31 33 33 34 33 28 28 32 33 39
18 15 19 36 31 35 46 41 39 38 26 41 46 44 42 49 41 43 38 39 37 31 30 29 30 25 30 29 33 40 40 35
18 12 14 28 40 42 49 42 44 42 33 29 48 49 49 47 42 48 45 39 41 35 35 34 33 32 34 34 37 40 36 39
17 17 8 15 37 40 54 49 44 51 40 36 40 45 48 52 51 48 46 45 42 43 39 35 34 36 34 38 39 39 40 46
13 19 17 10 16 49 49 56 56 43 50 42 42 44 50 49 48 47 44 39 44 44 48 50 50 51 51 50 49 46 53 54
9 15 19 16 10 18 55 57 57 56 45 42 46 44 48 52 53 55 54 51 45 47 46 51 51 53 48 51 47 53 55 57
12 14 18 20 14 8 14 50 58 61 57 59 52 45 49 56 55 56 59 53 53 50 49 45 44 47 49 54 54 54 58 59
17 15 17 18 16 15 10 10 41 55 63 62 61 57 56 55 55 57 57 56 58 59 53 51 54 52 55 56 59 60 63 66
20 17 16 19 14 15 14 12 6 26 44 49 66 66 64 63 61 61 58 56 62 60 59 60 61 62 63 61 64 65 66 70
22 21 18 17 18 13 13 15 12 9 12 28 36 40 50 57 62 63 68 65 65 65 65 63 69 67 68 66 67 66 58 53
28 26 20 21 18 16 12 11 11 10 9 9 16 27 30 31 33 33 41 48 51 48 50 47 51 49 45 45 40 38 38 42
24 25 25 27 18 20 25 18 12 7 9 10 8 9 17 22 23 24 28 31 31 34 38 41 40 40 38 40 40 44 46 46
35 35 24 29 32 25 24 19 20 17 15 9 9 8 10 12 16 22 28 34 36 35 36 39 45 46 44 48 51 54 54 55
34 30 33 27 23 23 21 21 25 21 19 19 15 10 9 10 11 16 17 18 21 26 34 41 45 47 47 50 52 54 56 58
40 36 33 34 34 32 31 33 26 24 24 24 24 23 22 21 17 15 14 14 15 16 17 20 23 28 33 39 42 46 51 54
44 40 38 37 37 37 35 32 34 30 29 30 29 27 27 26 26 24 22 22 22 23 26 25 22 22 24 26 28 27 27 30
44 45 48 46 42 42 41 38 38 36 38 40 39 36 36 36 33 29 30 33 34 33 33 33 30 31 32 36 35 34 35 35
45 46 47 47 47 45 45 42 43 43 43 42 44 44 46 41 39 41 39 39 40 40 40 39 39 40 43 45 45 44 44 43
49 50 52 50 49 48 48 49 49 47 48 49 47 47 45 47 46 43 42 42 44 44 43 43 47 49 49 49 48 50 50 53

GFSFLT1_250_spd_075.txt.gz
Wind_Speed
18 24 20 24 28 27 25 26 30 34 36 44 54 56 53 56 53 48 41 38 33 30 25 25 26 31 32 26 29 27 32 31
16 20 22 14 32 27 27 25 35 37 41 33 43 59 57 56 59 54 41 40 31 34 30 30 33 33 31 28 28 31 31 32
11 16 19 16 24 34 26 28 40 41 37 28 37 48 47 56 60 61 51 39 35 30 33 37 40 37 31 33 29 31 33 37
11 14 13 13 14 35 34 33 46 45 35 31 33 41 42 45 44 43 40 40 41 41 37 35 40 33 34 34 38 40 40 40
9 11 11 11 9 19 39 40 51 48 43 39 33 39 37 39 46 47 50 53 39 44 47 43 43 48 42 36 36 35 37 40
11 10 12 12 15 12 16 48 48 55 43 48 41 35 42 50 50 48 49 55 60 51 49 53 51 51 50 51 53 53 50 51
16 11 11 13 14 15 11 21 50 55 52 47 45 42 46 44 45 55 53 57 57 52 52 46 44 46 49 49 50 53 56 55
17 14 11 14 13 13 12 7 20 57 62 56 54 45 45 51 47 47 53 53 54 56 56 55 54 54 53 57 56 54 54 57
24 18 15 15 17 11 13 11 7 12 49 65 65 65 54 53 52 50 51 53 57 60 60 62 61 62 63 64 67 66 65 63
30 25 20 16 16 14 8 11 14 9 7 21 59 62 61 61 61 57 56 54 58 61 62 64 66 68 68 69 66 66 69 71
34 29 24 23 21 17 17 10 12 14 10 6 9 23 45 60 66 68 66 64 62 63 65 68 69 69 69 70 73 73 72 77
32 30 25 28 26 23 21 17 19 8 12 11 8 9 11 21 32 42 51 57 58 53 57 62 63 62 62 63 63 57 53 52
31 30 27 25 22 22 25 27 22 13 14 16 14 11 8 10 13 16 21 27 34 39 41 43 41 41 43 45 46 47 49 48
31 32 33 32 31 31 21 20 21 20 19 20 18 20 15 15 13 12 12 16 19 19 22 27 32 36 41 46 48 52 56 56
34 36 39 36 32 30 31 32 29 28 28 32 25 22 25 25 23 22 22 20 19 19 19 19 20 22 26 28 30 35 38 42
41 38 37 34 35 37 36 34 32 31 31 32 32 30 27 29 29 29 30 31 30 28 26 26 30 30 30 29 29 27 26 28
45 42 39 39 41 40 42 40 39 38 39 39 37 38 39 40 40 40 39 38 39 40 41 39 37 38 38 38 38 37 39 41
48 49 45 43 45 46 46 46 44 42 40 37 38 41 42 42 43 44 45 46 46 46 46 48 49 48 48 47 46 46 48 49
47 50 51 51 50 51 50 50 51 51 50 46 42 43 45 46 47 48 48 48 49 48 50 50 50 53 52 54 55 53 51 52

GFSFLT1_250_spd_078.txt.gz
Wind_Speed
17 15 21 25 22 20 28 25 20 25 25 23 29 31 56 62 60 59 58 60 50 39 30 28 32 29 29 25 25 36 37 46
18 13 16 23 18 16 29 29 28 24 28 21 30 34 47 56 63 61 59 59 60 47 37 35 34 35 28 29 29 30 34 42
11 9 14 17 19 15 24 30 30 22 29 28 36 41 48 53 55 52 56 52 52 41 37 34 34 32 29 32 34 36 30 35
13 10 11 12 14 17 14 32 29 25 27 31 34 38 50 53 49 54 52 55 54 48 46 44 32 33 33 35 38 39 35 39
19 12 10 7 12 12 10 25 30 29 26 37 36 37 42 54 53 53 49 53 50 52 53 50 37 34 27 32 38 43 40 40
21 16 12 7 9 12 11 11 34 35 32 38 39 33 29 42 48 54 49 53 56 56 46 41 41 38 41 42 44 46 50 54
26 21 14 11 7 10 11 11 8 36 38 45 45 38 33 29 35 40 41 50 57 47 48 48 50 48 47 52 55 54 55 54
28 25 20 14 8 8 12 10 10 12 42 46 50 47 42 40 36 39 43 45 49 52 50 50 51 55 62 57 52 50 49 52
33 29 21 17 13 11 10 9 8 8 8 47 51 56 50 51 46 44 44 50 52 56 58 58 62 57 61 58 58 56 56 57
37 33 25 22 16 11 7 6 7 8 8 7 21 56 58 60 55 52 49 49 53 52 53 57 58 59 61 61 63 64 65 67
40 36 29 26 21 17 14 12 11 11 12 10 8 7 34 61 59 60 60 57 53 57 59 58 59 60 61 64 65 66 67 71
36 35 33 30 26 23 22 16 16 13 10 12 12 12 12 12 24 44 60 55 52 59 63 62 64 66 67 70 70 72 73 73
34 33 32 31 29 23 17 15 15 21 16 12 10 16 19 17 16 16 21 29 37 45 48 50 53 56 58 58 57 57 56 57
34 32 33 31 30 27 24 23 24 21 18 19 15 15 16 19 20 20 19 20 23 25 27 30 33 37 41 45 48 50 51 51
34 33 32 32 32 32 29 28 29 28 28 27 27 22 22 24 23 25 24 25 25 26 27 29 32 33 33 31 31 31 33 36
38 35 32 32 32 33 33 35 35 32 30 30 28 28 28 28 28 29 27 28 29 31 32 33 34 37 39 38 39 38 37 36
43 42 41 39 38 36 37 35 35 38 39 36 35 31 31 33 33 34 35 37 38 39 41 42 42 44 45 46 46 46 47 47
46 46 46 46 45 44 41 41 41 41 42 43 42 41 40 38 36 39 40 42 43 44 43 44 46 46 46 48 49 50 52 53
46 48 48 46 47 47 48 46 46 46 46 46 46 46 47 46 46 45 46 45 46 48 52 52 51 53 53 54 54 53 51 53

GFSFLT1_250_spd_081.txt.gz
Wind_Speed
29 27 23 27 23 26 27 22 27 22 22 18 20 20 17 30 40 47 46 54 47 44 49 37 36 40 26 25 24 27 23 24
28 23 26 18 20 26 23 19 28 22 19 19 18 20 19 29 41 47 51 49 47 55 48 39 38 26 24 26 29 30 20 21
24 22 22 15 19 20 20 16 27 26 21 21 17 20 19 29 39 52 47 51 53 54 44 45 38 29 28 31 31 26 25 25
24 22 16 13 10 15 17 12 23 28 22 20 22 23 26 25 31 52 56 57 61 60 57 46 39 42 34 33 35 30 27 30
26 21 17 13 11 11 15 12 13 27 25 20 26 28 33 33 37 45 50 59 54 57 61 55 45 42 40 38 33 34 30 37
29 25 20 14 14 9 10 12 7 26 28 23 19 30 35 38 36 43 48 50 49 49 51 50 50 45 44 41 35 34 33 32
33 29 25 18 16 10 8 10 13 7 29 31 28 29 33 35 34 41 46 52 48 51 53 53 50 52 48 45 44 43 45 41
39 33 27 22 18 13 10 10 9 11 12 31 31 26 38 37 37 36 40 49 48 48 49 53 53 51 51 51 48 47 49 52
41 35 29 24 22 18 11 8 5 5 6 16 30 27 41 40 35 31 38 44 51 54 61 60 58 59 57 53 50 52 54 57
41 37 33 28 26 20 14 8 4 4 4 2 8 30 38 47 43 41 38 37 36 41 41 44 48 49 53 56 56 56 56 54
41 38 37 32 29 23 18 14 11 9 6 6 4 4 14 35 48 53 50 46 47 45 44 46 51 55 55 55 56 58 59 61
41 40 38 35 33 28 23 20 17 15 14 9 9 6 6 6 11 29 48 55 56 56 54 54 54 56 58 58 61 63 64 64
39 38 40 40 38 33 31 25 23 18 20 19 13 12 8 9 9 10 10 17 38 55 53 52 51 51 55 58 60 63 64 68
42 37 40 37 37 36 35 30 25 23 22 19 22 18 14 13 14 15 15 15 15 16 18 22 24 28 30 31 32 36 40 42
37 35 37 36 35 36 34 33 30 29 30 25 22 23 24 20 24 23 22 21 23 24 24 25 25 26 27 28 29 31 33 34
36 37 39 38 37 36 35 35 35 34 29 27 28 29 29 27 24 26 27 28 28 28 29 29 31 35 36 36 36 37 39 40
38 37 40 40 39 36 37 38 39 38 36 35 34 33 32 31 31 31 31 31 31 34 37 38 39 39 39 40 36 39 40 39
43 40 41 42 41 38 37 38 37 36 36 37 37 40 39 39 37 39 39 37 39 38 41 43 43 45 45 42 46 46 46 46
44 47 46 46 45 45 45 44 43 43 44 44 42 43 44 45 45 45 45 45 44 46 47 47 47 50 45 48 48 50 51 53

GFSFLT1_250_spd_084.txt.gz
Wind_Speed
43 20 21 35 28 22 23 34 31 26 20 22 19 24 21 20 20 23 30 39 51 48 47 40 34 32 36 29 31 22 20 29
26 17 31 32 25 18 28 27 22 22 19 24 19 21 22 20 25 29 39 38 46 45 52 48 39 39 37 39 38 38 27 20
23 25 36 32 22 18 20 17 18 20 23 20 19 19 20 23 26 35 34 37 38 43 44 46 38 39 37 33 25 23 21 24
24 37 37 30 19 16 13 12 15 17 25 22 22 18 19 20 31 25 36 39 38 39 42 47 48 34 31 24 23 24 27 30
34 41 36 26 19 13 12 11 12 10 28 27 17 21 24 24 24 33 35 40 41 46 50 52 52 54 45 35 36 33 29 36
45 44 34 28 18 14 8 9 9 6 22 26 21 28 29 28 30 35 35 35 44 50 48 54 53 51 51 45 42 37 42 37
47 41 35 28 20 17 8 7 8 9 13 27 26 31 35 31 37 36 41 46 49 48 46 46 51 54 51 46 45 42 38 35
49 43 39 30 24 19 12 8 8 9 7 27 30 26 38 38 34 33 41 43 44 49 47 51 55 53 48 50 52 49 44 48
51 45 37 30 28 21 15 9 5 6 5 9 29 29 26 41 41 39 37 37 49 51 54 52 53 50 52 51 51 56 56 52
51 44 36 33 30 25 20 13 9 5 1 3 12 30 31 34 38 41 38 39 42 48 52 53 54 52 52 52 53 55 58 58
51 45 39 36 32 26 25 18 13 10 5 2 2 8 28 32 33 41 40 39 39 36 37 42 47 47 50 47 47 50 53 54
51 48 43 38 35 31 27 23 17 15 13 11 8 8 8 14 24 43 46 45 42 38 40 41 41 43 45 46 46 49 52 55
48 49 45 39 36 34 30 29 25 21 20 20 16 11 12 10 11 14 21 33 47 56 54 52 51 52 51 54 56 56 59 60
46 47 45 43 39 39 35 34 31 28 22 21 21 22 18 17 11 13 13 12 14 16 21 31 41 47 51 54 59 59 58 49
44 42 42 44 42 42 38 39 38 34 30 27 24 22 21 22 18 17 18 19 18 18 18 20 23 24 25 26 26 27 27 28
49 44 43 42 40 43 41 42 40 37 33 31 30 28 22 23 25 26 26 22 22 22 25 26 27 28 27 27 30 32 34 35
50 47 41 43 39 42 42 43 40 38 38 38 36 32 30 29 31 32 30 28 27 29 28 27 29 32 33 35 37 39 40 41
52 47 42 39 42 44 45 45 43 43 41 40 39 36 36 36 37 38 37 36 38 36 36 37 37 36 38 41 41 42 43 44
54 50 47 45 46 48 50 49 46 43 42 42 40 38 37 37 38 40 43 43 44 44 44 44 45 43 46 47 47 47 48 50

GFSFLT1_250_spd_087.txt.gz
Wind_Speed
74 69 69 58 42 35 35 24 28 31 23 31 32 29 30 26 26 25 30 38 48 46 59 54 49 36 37 31 26 24 27 26
69 67 54 38 34 36 23 25 28 23 25 30 25 29 25 25 27 25 26 31 37 46 48 53 53 48 43 26 28 27 23 27
71 55 39 32 37 27 25 26 21 20 23 24 27 28 23 27 26 24 27 26 35 41 42 50 52 47 33 32 38 28 28 29
54 41 29 38 31 26 26 23 18 14 19 21 26 25 26 27 27 26 29 29 30 42 48 50 46 43 36 39 37 34 34 24
41 32 35 37 29 30 28 23 15 10 14 25 28 26 25 25 28 29 34 34 37 35 52 47 45 45 38 40 32 29 26 26
33 32 42 34 34 32 27 20 12 7 10 27 28 30 27 27 25 34 35 35 36 32 38 45 47 41 45 38 37 27 27 29
31 40 39 39 38 35 25 17 10 6 8 25 32 27 30 34 33 44 29 37 33 36 33 37 46 49 43 36 36 32 34 40
36 48 44 45 41 34 27 15 7 5 8 13 32 29 34 35 38 35 36 37 40 37 46 43 47 50 53 53 46 46 48 50
45 47 48 46 41 33 28 17 8 5 7 10 34 32 40 32 38 36 36 37 41 42 48 42 48 52 53 61 58 58 56 57
50 53 51 48 42 34 27 19 11 8 3 4 31 35 39 39 37 40 42 43 44 47 51 51 52 54 54 52 51 54 55 55
56 58 53 49 43 34 28 22 15 11 7 6 16 34 32 41 39 41 44 50 53 55 51 52 53 55 55 53 55 56 57 56
59 59 53 49 43 36 30 25 20 16 12 10 11 20 38 40 36 48 43 42 45 51 54 52 57 56 54 59 60 59 58 55
57 58 53 51 45 38 34 30 26 22 19 15 15 16 19 30 43 44 47 48 46 48 48 46 46 47 48 49 51 49 49 48
56 58 54 51 46 41 38 35 32 30 26 22 19 18 17 19 22 34 50 51 49 49 49 51 51 51 50 50 49 51 53 57
58 57 55 52 47 44 42 39 38 35 32 24 19 20 19 22 22 23 23 26 30 30 36 41 47 55 56 57 57 54 50 47
56 55 54 52 49 46 45 43 42 37 33 32 29 27 25 24 27 28 28 26 27 24 26 28 28 25 24 28 30 32 35 36
56 54 55 54 52 47 45 44 43 41 40 39 36 33 33 33 32 31 34 33 31 31 30 30 28 28 30 31 33 35 37 39
51 57 53 52 53 50 48 46 45 45 43 42 40 40 39 37 36 34 34 34 35 35 35 35 32 34 35 35 36 38 42 45
56 58 53 50 49 47 47 47 48 47 47 46 43 42 44 43 42 41 40 40 40 41 41 41 41 42 44 45 46 47 48 49

GFSFLT1_250_spd_093.txt.gz
Wind_Speed
72 73 72 71 71 73 73 75 75 72 69 70 62 51 39 35 35 34 26 32 34 46 53 50 56 55 55 56 51 49 48 42
69 71 70 70 70 70 74 75 73 69 68 63 49 39 31 32 34 28 30 33 35 46 50 52 55 58 59 52 52 51 50 47
67 67 68 71 73 74 74 76 65 71 64 49 37 30 28 33 30 29 32 33 31 46 44 52 55 58 54 53 51 48 47 43
70 70 70 67 68 72 73 69 68 75 52 37 29 27 30 28 30 32 29 30 27 33 43 48 47 61 60 47 52 47 47 43
67 64 65 66 69 70 72 71 75 59 39 29 26 28 29 30 32 28 31 29 29 32 39 45 41 55 61 49 49 49 49 55
62 64 66 67 69 74 74 71 60 42 33 29 26 27 29 31 29 30 30 32 35 33 34 40 39 48 51 59 52 51 55 47
66 68 70 73 77 78 73 60 49 36 34 29 28 26 29 31 28 31 30 35 33 28 27 31 34 36 45 47 53 50 47 49
71 74 76 82 80 70 68 59 40 37 33 31 31 26 29 30 35 32 34 35 31 29 31 26 29 35 36 49 51 56 50 47
76 81 82 82 75 73 56 40 40 38 32 31 30 28 30 32 37 35 36 35 32 35 26 32 38 36 37 40 55 55 47 44
78 80 77 77 67 57 42 41 42 37 33 31 28 28 31 34 34 37 34 34 33 43 38 39 36 39 38 36 40 47 47 49
77 76 71 58 54 45 40 45 45 37 34 30 30 26 35 36 38 37 33 29 26 41 40 36 35 39 42 37 41 43 44 46
72 67 57 54 44 39 45 49 43 38 33 30 31 29 37 42 40 40 38 35 29 38 33 31 31 41 37 34 42 41 47 50
60 53 57 39 38 43 51 51 45 38 35 31 29 30 34 45 45 38 39 38 37 39 31 35 34 39 45 45 49 48 49 54
50 51 47 39 42 49 54 51 46 42 37 32 25 27 27 46 46 39 39 40 39 41 41 37 40 42 48 51 51 49 54 56
47 53 40 43 50 55 55 51 48 45 39 34 28 24 25 43 44 45 41 42 40 41 42 44 46 51 50 51 52 54 59 58
48 47 43 50 58 58 54 53 51 48 42 36 29 28 26 33 37 50 45 44 49 50 47 50 52 53 56 57 60 62 64 64
43 40 45 56 61 57 54 55 54 50 46 41 33 30 29 32 31 36 43 52 56 55 55 53 54 55 61 67 66 67 69 71
40 42 51 60 59 58 56 58 58 54 47 43 38 35 33 34 33 28 34 37 47 60 59 60 57 60 58 60 64 69 73 78
41 46 56 57 57 57 56 59 59 55 52 47 44 41 39 39 38 35 33 35 36 38 43 54 63 66 64 65 70 68 63 60

GFSFLT1_250_spd_096.txt.gz
Wind_Speed
68 65 64 63 69 68 65 66 70 73 71 72 74 75 81 70 71 58 40 28 25 35 37 33 38 43 44 57 47 54 53 52
65 64 65 66 66 65 69 69 69 67 68 69 74 76 73 67 62 42 31 27 28 40 36 32 40 43 43 48 52 52 53 53
65 62 62 64 65 64 67 67 62 66 72 75 74 73 68 62 46 32 27 27 32 38 36 34 48 46 43 47 56 49 58 54
65 65 66 66 66 68 67 65 66 70 78 74 71 68 65 47 35 25 25 30 33 35 36 37 54 51 48 49 55 56 56 53
66 63 63 62 60 62 62 65 72 71 77 69 70 66 53 34 29 26 28 33 34 34 34 38 56 56 54 48 55 53 57 54
58 55 57 57 59 62 62 66 75 71 74 67 71 54 39 31 29 30 32 34 34 32 36 39 56 52 49 48 56 50 57 52
59 60 58 58 60 58 63 75 76 71 71 72 66 53 34 32 32 31 33 33 31 33 31 28 40 45 44 44 47 52 52 50
60 64 56 61 63 66 67 72 71 70 78 73 57 41 35 34 31 33 34 33 33 32 30 29 29 35 44 39 44 55 56 43
62 62 63 66 63 63 70 72 77 75 73 63 41 35 38 36 33 31 32 33 33 33 33 28 25 22 37 27 33 47 59 58
63 67 63 70 64 69 70 73 76 74 64 38 36 38 38 35 34 31 33 32 32 34 32 35 29 25 30 33 28 35 45 49
78 72 69 70 74 76 75 68 67 61 38 35 36 40 33 31 31 27 35 34 32 37 32 36 30 33 33 33 28 34 38 45
69 72 72 72 77 70 65 60 56 38 34 36 41 36 32 31 27 32 37 35 33 36 37 39 28 32 36 39 35 37 38 42
71 71 71 70 71 63 62 59 42 35 39 43 40 35 32 31 27 35 34 35 32 29 28 45 40 35 31 35 37 38 33 36
66 66 62 65 62 62 59 47 36 37 45 43 38 34 32 30 26 38 37 39 36 33 29 35 42 35 33 35 41 40 34 37
68 69 64 69 65 51 50 39 36 46 47 45 37 31 30 31 32 38 42 40 39 38 38 31 31 28 33 37 39 40 42 46
68 73 69 61 45 44 39 38 46 53 48 45 38 31 27 28 27 40 49 45 43 42 41 37 34 36 36 39 37 43 45 51
48 49 46 45 43 40 37 42 57 54 52 46 41 35 31 27 25 44 45 47 41 41 43 40 38 39 40 42 45 46 52 55
52 50 48 45 40 41 41 53 60 57 54 50 45 38 35 31 29 35 47 47 48 46 48 48 45 44 43 45 49 54 55 57
47 46 47 40 40 41 46 60 59 58 57 52 47 42 40 37 34 34 38 40 50 52 55 53 54 54 52 50 53 57 62 63

GFSFLT1_250_spd_099.txt.gz
Wind_Speed
61 57 56 51 47 39 37 34 40 52 61 59 60 64 65 63 64 68 69 74 69 56 40 31 29 37 43 46 52 53 51 45
67 60 59 58 53 47 40 46 50 57 64 59 63 63 63 64 67 69 73 68 59 40 32 32 34 38 40 44 46 54 55 48
64 61 61 57 58 59 57 50 54 57 64 59 61 62 64 64 67 70 64 64 44 33 30 34 37 33 39 39 41 57 57 53
62 60 55 55 58 57 54 53 53 56 61 61 63 64 62 65 68 67 63 55 35 29 31 36 37 37 38 41 42 47 58 52
60 53 54 53 54 57 54 52 56 60 61 65 64 60 62 69 71 64 60 44 33 30 33 38 40 38 38 45 45 38 42 57
54 58 58 55 55 55 52 54 56 59 59 63 59 60 69 70 66 68 53 36 32 31 35 38 38 42 42 42 45 46 46 56
51 56 59 59 57 56 53 51 53 57 59 63 63 67 70 64 67 61 42 33 32 35 37 38 38 42 44 49 54 56 48 48
50 46 50 54 45 49 53 52 55 57 58 61 66 65 63 65 68 51 35 34 35 34 34 36 37 37 44 52 54 60 47 41
54 50 49 49 54 57 58 55 54 55 62 65 60 63 68 67 58 40 35 35 35 33 34 35 33 32 39 52 52 45 46 46
57 53 57 52 56 57 58 62 60 60 62 59 61 65 68 60 43 34 36 38 35 33 33 36 33 29 30 37 51 47 43 42
55 51 48 55 55 53 53 52 55 56 62 61 64 65 59 40 38 33 36 38 35 32 36 35 33 29 30 27 38 39 38 32
53 50 51 57 59 52 55 58 55 58 62 67 68 55 40 37 36 33 39 34 33 35 37 36 35 35 30 26 29 35 33 27
60 53 57 62 58 56 57 62 62 65 65 67 48 36 36 36 34 36 33 29 32 38 33 37 36 39 33 31 28 33 32 28
59 58 52 56 56 60 63 60 59 64 60 49 38 36 38 36 35 36 32 26 36 36 34 37 39 38 36 31 37 35 37 35
58 63 65 66 66 61 65 63 61 58 55 46 38 37 41 38 38 37 30 29 38 39 36 37 38 35 41 34 32 33 35 34
63 61 61 65 66 68 68 66 61 61 58 45 38 43 43 40 38 38 32 31 41 39 40 38 40 40 48 47 42 40 38 39
58 62 64 66 69 68 62 60 65 59 46 39 41 47 44 37 36 35 31 31 43 49 41 41 38 35 36 41 40 35 37 36
63 64 68 67 62 67 67 58 47 42 40 41 51 50 46 37 33 32 32 32 51 50 48 50 45 43 43 37 35 35 35 40
57 59 62 66 66 53 49 48 43 42 41 49 55 53 49 41 36 32 30 32 48 55 55 46 48 44 42 44 40 40 41 41

GFSFLT1_250_spd_102.txt.gz
Wind_Speed
82 79 68 57 57 61 54 46 49 49 44 43 46 51 47 47 48 51 54 55 54 58 61 69 67 51 40 30 31 40 48 51
81 80 70 65 59 62 63 44 42 37 42 44 49 46 44 46 52 54 53 52 55 59 61 65 57 42 31 27 35 41 46 49
70 82 72 66 61 64 60 47 46 45 43 47 45 41 45 51 54 53 51 53 60 58 63 59 48 36 27 32 37 39 45 49
69 71 76 65 62 60 62 52 47 45 46 48 47 45 47 50 52 55 55 58 60 58 58 53 41 33 30 35 35 40 47 53
65 65 66 63 59 57 62 60 56 50 49 55 52 47 47 50 55 57 59 60 57 61 52 49 36 31 34 35 37 43 49 57
52 55 57 62 59 59 59 57 60 60 60 52 54 48 48 51 60 59 57 59 61 60 52 42 36 34 36 38 31 38 43 54
45 48 55 63 60 59 59 56 56 52 49 51 52 50 51 58 59 59 59 60 63 60 50 38 36 36 39 38 42 38 43 45
47 53 60 68 64 62 59 51 49 52 53 53 56 51 53 57 59 57 60 62 61 57 41 37 38 39 39 43 44 43 45 50
48 54 58 60 60 57 51 52 54 54 56 53 56 52 56 55 56 60 63 60 64 47 36 39 39 38 41 47 47 50 47 55
54 55 60 53 51 52 50 52 52 46 50 56 51 52 52 54 56 57 56 62 56 37 36 39 36 37 40 43 41 40 48 59
50 58 58 61 56 54 49 50 50 53 51 50 52 54 55 57 60 59 59 61 41 35 37 36 36 36 37 35 31 36 46 58
52 57 61 63 49 43 44 49 51 56 55 55 53 55 58 58 57 61 63 49 36 35 34 36 39 36 34 31 32 34 42 48
57 57 58 54 56 50 51 53 49 49 53 51 48 54 58 57 59 59 49 43 35 35 36 38 37 35 37 34 32 34 36 41
65 61 57 54 60 56 60 51 51 48 46 47 50 57 60 58 55 48 46 37 35 34 36 35 34 38 37 34 32 30 27 36
42 58 61 54 53 54 57 55 55 54 51 53 55 59 65 64 48 47 42 36 35 37 34 33 38 37 37 40 39 35 32 34
41 44 53 49 55 54 52 52 57 56 52 55 62 65 62 66 44 48 42 40 39 37 33 38 34 37 40 39 42 35 34 33
46 51 53 54 51 52 54 57 57 58 58 60 65 64 65 52 47 43 42 42 40 39 36 41 40 37 41 43 43 42 41 40
48 48 49 51 54 58 58 59 59 60 63 64 65 64 60 50 43 43 44 42 45 38 37 44 44 42 42 47 47 50 48 48
48 51 52 54 55 56 58 60 63 63 63 62 65 66 58 44 43 47 45 44 43 41 39 47 46 44 46 45 51 52 47 47

GFSFLT1_250_spd_105.txt.gz
Wind_Speed
82 75 75 73 74 74 73 69 63 61 57 57 55 50 42 45 50 52 50 41 43 41 45 47 49 53 58 61 64 52 37 24
87 82 76 75 73 73 73 69 64 59 56 49 53 54 48 45 49 48 42 43 44 44 45 47 49 54 58 62 59 42 29 22
88 83 80 77 76 70 70 69 66 57 55 58 52 52 47 45 39 37 42 45 44 43 47 48 51 53 56 60 48 35 25 25
80 79 81 77 67 66 64 67 66 59 58 57 59 48 47 45 41 42 46 45 41 42 47 49 52 54 57 55 41 31 26 31
75 73 74 68 59 57 53 65 67 61 60 56 55 53 48 45 47 46 43 43 44 45 45 53 52 57 58 53 40 34 27 32
62 61 63 61 58 53 48 58 66 61 61 60 56 48 45 40 42 43 49 45 45 44 50 53 57 57 59 53 38 35 33 32
50 51 53 54 56 55 57 60 67 65 65 63 60 55 48 46 47 49 45 44 46 49 54 56 58 59 58 55 39 39 35 33
40 43 47 51 54 60 64 68 70 65 63 65 62 58 55 55 52 49 46 47 48 54 56 58 60 61 60 47 40 41 41 34
35 39 44 49 56 64 71 73 65 60 57 60 58 53 51 54 49 49 52 46 51 57 56 60 61 61 58 42 40 42 42 41
34 38 43 47 55 64 68 66 60 57 56 55 53 54 47 45 44 47 49 51 54 53 58 60 60 62 44 42 40 41 41 46
39 40 45 49 54 57 59 58 57 53 56 48 47 42 45 45 46 47 49 47 52 57 61 59 59 49 41 42 39 40 42 48
43 44 47 47 50 52 56 55 55 52 48 50 48 45 43 45 46 45 44 51 56 58 60 57 55 40 42 43 40 40 42 45
43 45 46 47 51 58 57 53 54 53 56 51 49 53 46 42 40 43 51 54 56 58 61 57 42 38 43 41 40 40 40 38
44 44 47 50 51 51 53 55 50 44 47 54 46 47 49 46 44 52 54 57 59 60 57 50 39 39 41 39 38 37 35 33
48 46 49 51 55 58 62 56 48 51 52 53 50 48 50 47 48 53 57 59 60 61 61 45 40 38 36 38 37 39 35 36
54 52 54 54 57 56 63 62 61 52 51 50 50 50 52 55 58 60 62 62 59 59 54 42 41 36 34 35 42 40 39 36
56 60 61 57 59 56 55 53 54 55 55 59 53 53 53 56 57 60 63 65 65 59 56 47 45 37 35 40 43 43 42 39
43 64 62 63 63 59 56 57 60 52 57 64 58 57 60 63 64 67 69 67 59 56 52 51 47 41 37 45 45 45 47 46
46 44 57 61 59 62 58 53 50 56 58 59 60 61 62 63 62 66 68 66 62 53 49 52 50 44 41 49 48 48 47 53

GFSFLT1_250_spd_108.txt.gz
Wind_Speed
87 89 86 84 79 65 61 64 63 71 77 78 73 66 59 55 56 55 52 49 45 44 39 37 36 37 40 40 42 46 49 54
91 93 89 85 81 69 60 64 66 66 75 76 76 70 64 56 52 57 54 51 44 41 40 43 42 38 41 41 42 46 49 52
90 90 93 89 82 75 62 62 68 67 68 71 74 74 66 58 54 53 50 46 40 40 44 45 42 41 42 44 42 44 48 51
90 89 94 97 84 82 75 64 66 68 65 72 74 70 64 59 54 53 45 42 45 42 42 41 41 39 42 44 44 43 44 47
85 84 86 90 86 82 76 68 65 68 67 68 71 68 64 61 56 60 56 53 50 42 41 38 37 40 41 45 45 45 44 49
75 72 72 72 72 70 68 68 65 68 65 63 69 72 67 57 55 58 60 52 46 43 42 40 40 38 40 46 46 48 46 49
63 60 62 66 61 61 63 64 62 65 65 60 66 71 66 57 57 51 51 48 47 45 42 42 42 40 43 48 50 49 49 50
51 47 51 52 51 50 56 58 60 62 63 60 67 71 66 59 56 49 43 40 42 46 40 42 44 45 48 51 52 53 54 50
40 38 38 40 43 47 52 56 59 60 61 60 67 69 66 59 57 52 46 40 44 45 45 49 48 46 51 53 53 52 52 52
29 33 32 35 41 47 51 56 58 56 59 65 69 68 62 56 51 53 52 52 50 51 44 41 44 47 52 52 51 57 55 46
26 28 31 34 37 40 46 52 55 58 58 66 66 64 58 55 55 53 51 47 48 43 42 41 45 49 49 51 54 57 57 41
30 29 30 32 34 35 40 44 51 59 60 60 57 58 52 48 49 54 54 49 48 40 40 43 49 50 50 52 53 55 42 36
31 32 34 34 32 33 32 36 44 51 52 48 48 45 45 44 47 46 46 44 40 37 39 51 52 53 52 54 52 45 36 40
36 37 38 35 33 34 39 40 43 50 49 47 46 43 42 40 46 45 44 42 38 39 49 54 55 56 55 51 51 42 39 43
35 36 38 38 35 37 44 48 51 52 51 48 45 46 43 42 45 44 38 34 38 45 53 56 57 57 54 52 53 44 42 45
35 39 39 39 38 37 40 46 52 55 51 51 51 52 49 45 45 49 49 45 48 53 54 54 57 58 58 54 56 46 45 44
37 39 42 41 41 43 46 46 49 50 50 52 53 50 52 47 49 53 51 55 58 57 56 60 63 63 60 63 58 48 46 43
44 40 42 45 47 45 49 48 51 50 51 49 43 44 44 51 52 54 53 53 54 58 60 63 65 66 67 65 57 49 45 41
36 38 42 46 48 50 50 51 54 52 51 46 49 44 45 59 58 57 57 58 60 61 66 67 69 72 68 65 56 49 44 43

GFSFLT1_250_spd_111.txt.gz
Wind_Speed
91 88 85 83 83 84 80 80 80 79 68 53 60 61 62 66 64 64 61 52 50 47 44 44 42 43 38 31 34 37 36 34
89 95 96 90 82 86 86 84 84 84 77 64 54 58 62 64 68 70 65 57 53 48 45 46 44 43 36 36 38 41 37 35
77 81 83 87 85 88 91 89 90 86 79 68 56 58 63 64 68 66 66 60 58 52 48 48 45 41 38 40 44 42 40 36
77 78 81 83 88 90 92 92 93 87 78 68 58 60 56 59 60 64 65 68 64 54 51 46 44 40 39 41 44 40 40 35
78 80 86 89 92 95 92 87 85 85 79 68 59 57 52 63 67 70 69 67 64 53 51 47 36 39 47 46 41 37 38 36
84 85 86 88 90 91 89 82 83 87 79 70 62 59 56 71 72 70 65 65 65 52 52 53 47 45 46 43 40 37 39 36
79 81 78 77 78 77 78 77 77 78 76 69 64 64 65 73 72 68 63 65 62 52 52 50 46 44 43 43 41 38 39 38
66 65 64 64 65 66 64 63 65 70 70 67 66 68 71 73 71 66 62 61 58 52 52 52 45 43 44 42 39 40 40 40
52 51 49 49 51 53 54 54 57 60 64 64 66 64 70 69 69 63 61 58 57 53 46 48 40 43 44 41 42 42 43 42
39 35 36 39 40 43 44 46 47 50 54 58 60 67 67 65 67 64 60 57 52 47 47 44 41 47 44 43 45 41 43 43
29 30 33 32 35 37 40 41 43 48 49 50 53 62 58 57 60 62 59 51 49 47 50 47 49 46 48 46 44 44 43 46
28 27 26 28 29 30 33 35 39 43 43 43 46 54 54 51 57 64 54 49 50 52 51 50 51 49 48 47 40 43 45 48
27 26 20 19 24 24 27 29 33 33 38 47 46 49 50 52 56 58 53 50 47 51 52 55 54 52 47 44 43 46 50 50
26 26 23 18 22 23 25 23 26 29 36 44 41 40 45 46 49 53 50 47 47 48 49 52 56 54 52 45 44 50 52 50
30 27 33 37 26 18 12 25 29 30 36 42 47 40 40 44 50 48 41 43 45 47 50 48 46 49 46 41 48 55 54 54
30 31 30 31 28 33 31 28 36 37 38 42 45 44 46 49 49 44 46 51 49 51 52 56 56 50 44 47 51 54 57 54
33 30 29 31 29 30 29 30 35 40 30 46 48 46 48 45 45 48 52 50 50 51 55 54 55 53 49 54 58 58 57 56
36 32 30 32 32 30 31 32 34 42 49 48 50 46 42 43 42 48 48 49 49 54 55 55 53 55 57 58 60 60 59 61
34 35 30 29 33 31 30 32 36 43 46 50 52 43 40 40 38 47 51 52 54 57 52 59 58 57 58 61 60 62 62 65

GFSFLT1_250_spd_114.txt.gz
Wind_Speed
90 86 81 79 78 77 81 82 83 84 82 73 77 84 84 74 61 60 58 55 54 52 51 47 43 40 42 43 40 41 39 35
88 89 89 80 77 82 85 88 89 90 88 86 82 84 86 79 69 59 61 57 62 50 52 52 44 40 41 41 41 43 38 36
83 82 83 85 85 89 90 91 94 89 87 89 89 88 87 86 79 61 59 61 62 63 54 55 53 43 39 43 44 42 41 44
88 90 92 93 92 92 93 93 92 94 92 90 88 92 88 86 81 70 67 67 65 60 58 55 56 47 40 43 43 40 44 45
93 92 94 92 91 91 91 91 93 95 96 93 89 88 93 86 86 80 70 63 65 62 60 56 58 50 44 47 45 41 46 42
89 89 89 92 90 87 88 88 91 95 94 93 92 88 91 92 87 86 74 64 65 68 58 54 56 51 47 45 40 41 46 44
87 86 85 86 87 87 89 90 91 91 91 90 90 89 87 92 87 87 82 62 67 70 59 54 56 51 45 46 46 47 49 44
77 79 78 78 77 77 77 76 77 81 77 79 81 81 78 79 78 82 76 59 66 67 58 56 58 51 46 49 50 54 50 45
69 67 66 64 63 64 65 65 66 68 68 70 74 73 72 70 72 74 70 63 72 66 61 57 58 49 47 44 49 47 46 42
58 55 56 56 56 55 53 53 55 56 55 56 60 63 64 67 71 73 72 63 70 63 61 56 55 50 46 44 39 39 44 41
44 44 43 43 43 41 38 39 41 42 44 46 48 52 54 61 67 67 68 64 65 63 57 55 55 52 48 47 46 41 46 47
32 28 27 26 25 27 28 29 31 31 31 33 37 40 44 50 54 56 56 66 58 58 54 53 56 56 52 50 49 40 45 51
16 15 16 15 15 20 21 21 21 23 22 21 22 24 28 36 38 46 51 52 54 56 53 53 51 55 51 49 48 48 53 52
15 18 15 14 14 12 6 10 12 13 14 19 23 24 27 29 37 39 42 46 47 55 51 48 46 51 50 49 46 52 49 53
23 25 21 19 13 6 0 11 11 17 18 24 31 28 25 31 33 35 37 38 43 47 49 50 44 51 54 56 54 59 61 59
30 30 29 22 20 18 19 11 14 19 26 28 32 33 34 37 36 37 38 41 48 47 49 46 42 48 52 56 59 60 62 60
37 34 31 29 25 27 19 17 21 21 30 31 34 37 37 39 41 39 41 41 48 46 44 45 46 53 58 58 62 65 64 63
34 33 30 31 30 31 25 22 30 28 36 41 40 41 36 37 42 42 43 43 46 47 49 52 51 55 59 62 64 65 65 63
37 33 27 26 30 30 27 23 33 38 39 39 46 49 46 42 39 38 41 44 52 54 52 51 55 57 61 64 65 65 64 65

GFSFLT1_250_spd_117.txt.gz
Wind_Speed
84 86 86 86 88 88 88 86 86 84 82 80 77 75 74 77 75 70 70 68 76 72 61 60 48 50 49 48 47 44 43 38
92 92 93 93 93 95 95 89 88 85 83 80 79 78 78 77 76 75 76 74 72 69 64 56 57 53 52 51 45 44 44 41
98 98 100 100 98 96 96 94 90 85 84 85 85 83 85 82 80 84 82 82 80 74 73 64 62 52 54 51 46 43 40 40
106 104 104 102 98 98 97 97 96 94 94 92 89 90 90 90 86 82 84 83 82 78 76 65 57 53 56 53 51 43 38 36
106 104 105 105 106 103 99 100 101 104 100 97 98 95 91 88 87 85 84 82 80 77 75 74 64 58 55 59 55 50 41 40
103 104 104 105 105 106 105 104 101 99 99 100 97 95 90 89 86 85 85 82 81 83 75 74 68 61 56 62 59 54 45 41
106 106 105 106 107 107 101 96 94 94 95 95 95 93 92 91 87 83 80 81 84 81 81 78 72 62 57 60 61 57 49 42
104 107 105 101 97 95 91 89 88 91 91 92 92 92 92 90 87 83 82 84 84 77 77 81 77 67 58 60 62 56 50 44
90 87 82 81 81 83 85 82 80 80 80 78 77 79 79 80 81 84 81 84 85 85 79 77 79 62 57 57 61 53 49 45
75 72 74 74 71 69 70 69 66 64 62 63 64 66 68 69 68 71 69 74 80 82 86 82 77 61 64 58 60 49 48 47
64 62 57 54 54 53 51 52 51 50 48 48 50 52 52 53 57 60 60 55 61 69 79 72 71 63 65 59 60 49 49 47
44 42 40 41 42 43 43 40 39 39 38 39 42 45 42 40 42 45 48 46 52 61 66 62 60 69 63 60 60 57 51 50
31 31 30 27 23 22 22 21 21 20 21 19 22 27 30 29 28 25 29 38 48 55 52 54 64 61 57 64 60 56 53 53
24 21 16 15 12 11 9 6 11 14 7 7 9 16 20 20 27 34 28 31 33 44 49 48 59 55 58 62 58 55 56 49
21 18 20 18 11 2 7 7 6 5 3 4 10 13 22 18 20 26 29 35 41 42 49 50 60 58 63 61 58 55 53 54
28 27 27 22 18 11 8 5 2 11 14 15 14 16 23 26 22 22 27 33 36 42 43 48 50 53 56 53 53 57 55 57
33 33 27 25 24 22 10 7 5 11 21 21 20 20 20 25 29 30 31 33 36 40 38 39 44 42 48 50 50 45 49 51
40 35 27 26 28 26 22 17 17 14 20 23 23 24 23 22 27 31 36 36 38 39 39 45 49 51 48 47 44 46 52 56
45 41 35 32 29 29 22 21 24 22 24 22 26 30 28 21 27 29 28 24 28 32 36 43 48 50 50 51 52 53 56 62

GFSFLT1_250_spd_123.txt.gz
Wind_Speed
88 88 84 82 81 82 80 80 80 84 82 80 78 78 74 75 74 72 72 67 59 57 73 70 68 66 64 61 53 53 49 49
93 89 93 99 98 91 91 87 81 87 89 83 83 81 82 82 82 79 76 73 71 77 79 62 63 72 74 70 60 52 56 56
103 103 102 106 103 101 97 95 91 89 93 95 92 92 90 87 85 83 80 78 79 77 75 52 71 73 72 73 65 60 57 56
108 107 101 95 94 101 101 100 97 94 95 98 98 94 91 89 87 85 82 79 76 79 76 69 78 76 70 76 67 63 62 54
107 101 93 92 92 92 99 102 100 96 98 100 102 102 100 99 95 91 89 86 86 86 77 75 70 72 73 73 68 61 55 54
98 92 86 85 83 88 90 93 95 96 99 101 103 101 102 100 100 98 95 96 94 93 88 83 78 75 72 67 72 57 46 47
85 82 76 76 74 76 81 85 87 88 93 97 100 103 104 102 103 102 100 98 97 92 92 86 84 84 77 73 65 44 37 52
75 73 68 65 66 65 67 70 76 81 84 90 95 99 103 104 104 104 101 100 97 97 97 95 91 85 80 76 70 41 37 68
60 57 55 53 55 56 57 59 62 67 72 78 85 88 93 100 107 108 106 105 101 99 97 98 92 74 65 63 64 58 62 78
51 49 45 43 44 47 50 51 54 58 61 66 71 75 78 84 91 95 96 96 94 89 85 79 77 72 63 59 64 58 67 69
46 46 46 44 41 41 42 45 45 47 50 51 54 56 58 61 65 70 73 76 77 78 78 74 71 71 63 64 57 58 57 62
45 43 43 39 36 34 35 36 37 40 41 43 45 46 47 49 52 53 56 59 60 61 64 63 64 67 62 67 62 56 51 58
40 38 34 28 26 26 26 26 25 25 25 25 26 29 34 37 40 42 41 41 42 46 48 56 59 63 56 76 67 54 51 65
31 28 26 22 23 22 17 13 10 10 13 13 16 20 24 28 29 27 30 31 33 40 42 49 55 61 68 79 70 65 58 66
24 22 19 18 17 14 15 12 9 5 5 9 13 16 19 24 21 23 23 26 27 31 35 42 56 58 75 80 80 68 53 50
19 19 20 22 19 20 17 17 13 11 9 12 12 14 16 18 18 20 20 18 21 24 30 39 46 51 72 72 66 49 44 47
22 29 29 25 21 21 17 13 10 15 16 12 15 16 15 17 19 17 13 14 20 25 27 37 48 58 65 66 45 35 41 46
35 35 31 25 21 21 19 16 14 19 15 15 16 18 21 17 20 21 23 23 23 30 34 44 55 60 66 62 51 43 41 36
37 35 30 27 25 24 20 16 17 18 18 17 16 16 18 20 16 18 25 27 31 33 36 42 50 52 54 52 47 45 43 48

GFSFLT1_250_spd_126.txt.gz
Wind_Speed
77 83 85 92 92 94 97 98 96 93 87 80 78 76 70 68 66 68 66 63 58 28 38 50 65 59 56 66 63 71 67 51
95 99 100 101 101 107 105 102 100 99 96 92 86 85 80 76 74 73 69 69 62 55 60 74 52 50 60 67 63 62 62 54
106 103 104 108 109 109 105 103 103 100 97 99 94 90 90 86 82 77 78 72 69 67 59 67 67 60 60 49 58 62 54 47
113 112 111 114 111 107 99 95 95 97 97 97 98 95 96 98 91 85 82 83 81 76 78 76 60 63 48 57 62 69 65 57
114 112 115 112 103 94 91 90 89 90 90 89 92 91 94 97 99 91 87 88 87 86 83 78 73 75 74 73 72 75 64 55
108 109 106 100 91 87 83 81 80 80 82 81 79 84 88 95 99 97 93 91 92 93 89 88 83 82 81 78 77 73 61 61
97 93 93 93 84 76 70 66 64 64 67 75 75 76 80 89 98 97 97 95 96 95 97 95 93 90 89 83 75 72 67 56
90 87 81 76 70 64 58 53 52 52 54 59 65 67 73 80 87 93 97 95 99 98 98 96 94 93 90 87 78 72 71 46
75 71 67 62 58 52 48 45 45 43 44 48 51 55 60 69 75 79 85 90 97 102 102 99 97 96 93 89 79 74 70 65
60 56 50 49 49 46 42 39 39 39 38 40 41 44 48 55 64 71 74 78 86 93 100 104 104 104 99 94 85 77 66 59
47 43 42 42 42 40 38 39 36 36 35 35 35 35 39 46 53 62 69 74 79 84 89 93 95 95 97 96 90 83 76 73
43 41 37 37 33 32 34 35 34 32 30 31 32 32 33 36 43 51 59 65 70 76 79 82 84 85 89 88 82 84 80 79
40 37 36 33 32 30 30 26 24 21 21 22 25 27 29 31 35 41 46 52 55 59 64 66 69 72 75 77 78 75 77 76
34 34 34 29 27 24 19 17 14 12 12 14 15 17 19 23 27 29 32 37 42 46 51 56 60 64 66 68 73 74 77 86
32 32 27 26 23 17 17 16 14 12 12 9 7 9 13 14 19 20 22 25 30 34 41 44 50 55 60 64 69 75 78 87
25 22 20 21 15 18 19 17 14 15 11 8 8 9 11 12 16 14 15 23 27 25 28 32 39 44 49 57 61 69 77 86
19 17 21 19 22 22 21 17 16 21 18 17 12 12 10 10 11 14 20 25 23 23 22 28 32 38 43 50 53 55 74 83
19 24 26 22 24 22 20 19 17 21 17 18 17 14 14 13 16 17 22 22 26 24 22 19 26 31 35 39 42 44 63 80
28 32 29 25 25 22 21 20 20 17 15 16 20 21 17 16 16 19 21 19 22 22 20 21 20 26 30 34 39 48 57 73

GFSFLT1_250_spd_129.txt.gz
Wind_Speed
89 83 85 88 89 90 92 89 87 86 86 89 91 92 93 94 93 84 70 67 61 59 49 66 51 55 56 50 47 56 52 60
93 94 95 95 95 96 98 98 97 100 101 100 102 101 102 102 100 97 87 75 69 70 64 57 49 50 48 51 62 52 55 57
99 100 102 103 102 102 104 108 110 112 113 114 117 116 108 106 102 99 97 88 76 72 73 64 62 56 63 55 58 53 50 48
107 107 110 112 113 115 117 118 120 120 123 124 109 103 102 97 93 95 96 95 84 78 79 74 79 63 66 55 48 58 47 59
110 112 115 117 119 121 122 123 118 112 105 100 94 90 87 89 86 87 94 96 94 84 79 84 83 82 76 68 45 60 55 64
113 117 117 116 111 108 104 99 97 95 86 82 79 79 83 83 82 80 88 96 97 91 85 87 87 87 84 72 66 59 51 59
104 103 103 100 98 96 93 89 86 83 79 75 70 69 71 73 76 76 83 91 96 97 95 90 90 88 89 83 84 71 67 54
100 99 98 96 91 88 84 77 75 72 67 64 59 59 61 66 68 72 76 85 92 95 97 93 91 92 94 93 97 89 86 75
95 93 88 84 77 69 66 65 64 60 56 50 47 47 50 57 61 65 69 78 85 89 93 95 94 93 95 97 99 98 95 90
85 80 73 69 65 61 58 56 52 49 45 43 43 39 41 45 50 52 59 67 77 81 86 92 96 95 98 97 96 97 99 96
69 64 62 58 54 51 49 49 47 40 37 37 37 33 32 37 43 43 48 56 67 75 77 84 93 96 99 100 99 100 103 102
58 56 53 49 44 41 41 41 32 29 30 31 32 30 28 31 35 39 41 46 55 66 71 76 85 94 100 100 101 102 105 106
52 51 47 42 39 36 34 26 25 23 23 23 25 24 23 25 28 31 35 40 46 54 64 70 76 85 92 94 97 100 105 108
47 43 38 34 33 30 26 23 21 21 18 16 12 13 16 18 21 26 30 33 37 44 53 63 71 77 81 85 91 95 99 104
39 35 33 31 30 25 22 19 19 19 18 14 11 8 8 11 14 13 17 23 31 37 43 49 58 66 73 78 82 86 90 93
34 30 27 26 20 16 16 18 19 18 16 14 8 6 8 8 8 7 9 17 21 26 28 35 44 53 60 63 67 74 80 83
25 23 21 17 14 18 22 24 23 19 16 13 12 13 8 9 8 9 9 10 13 17 20 20 27 34 40 47 53 55 62 69
20 19 18 16 23 26 25 26 22 22 21 16 17 12 11 11 9 12 12 13 15 20 26 26 26 27 28 34 43 48 49 54
20 19 22 22 30 27 27 26 23 23 22 24 20 17 18 17 13 15 19 20 19 19 23 23 25 24 25 26 32 37 42 44

GFSFLT1_250_spd_132.txt.gz
Wind_Speed
77 81 84 87 88 89 92 94 96 97 95 93 93 93 94 95 92 90 86 83 80 70 60 69 64 54 59 62 63 57 53 45
84 84 86 87 88 91 93 97 99 101 102 103 105 104 103 103 103 99 98 96 92 89 75 66 75 67 70 53 55 67 63 59
93 93 93 94 95 96 98 100 101 103 104 107 109 113 114 114 113 112 112 111 107 99 95 78 73 82 77 75 67 62 59 55
102 101 101 102 105 106 107 107 106 109 112 111 115 116 115 116 117 119 118 114 110 110 104 87 79 86 87 79 67 64 62 53
109 110 110 109 110 111 113 112 112 109 108 107 103 99 96 101 100 102 104 101 99 99 96 85 81 92 90 85 73 69 64 52
112 111 110 113 113 113 110 107 107 101 96 91 86 83 85 87 88 89 94 95 85 89 87 84 80 94 100 90 82 76 73 59
114 113 113 113 111 103 104 100 95 91 88 83 79 77 76 76 79 81 79 84 81 75 82 82 80 90 100 101 92 86 78 67
110 111 110 107 101 98 95 90 83 80 77 73 69 66 65 65 66 67 66 70 73 72 75 78 76 84 102 101 102 98 91 79
103 100 100 98 92 85 79 74 72 68 63 59 54 52 51 52 55 55 57 59 60 65 69 74 74 78 99 102 105 105 99 92
97 94 91 83 76 72 69 64 58 55 50 45 44 44 43 43 44 45 49 52 53 56 61 70 70 76 86 103 107 110 106 103
83 80 73 70 68 62 58 52 46 40 39 39 40 39 38 41 41 43 43 45 46 47 54 61 67 71 79 97 106 112 110 104
70 65 63 58 54 50 47 44 35 31 32 34 34 31 31 33 34 36 37 39 37 37 44 53 60 67 74 84 103 110 112 111
58 54 50 45 44 44 42 37 29 29 29 27 27 26 24 22 25 28 31 31 30 32 37 45 53 60 66 75 92 106 110 112
48 42 40 41 41 39 36 32 29 26 23 20 19 18 11 12 14 17 20 23 24 27 31 37 46 51 61 70 80 94 106 109
41 38 37 38 36 33 31 29 25 22 20 18 22 10 10 10 7 9 9 13 16 22 24 28 34 43 53 63 70 80 91 101
38 37 36 34 29 26 23 21 21 20 21 21 20 13 10 11 8 8 6 9 11 10 12 16 22 30 42 55 64 71 79 87
32 29 26 23 21 20 20 21 24 23 21 21 18 9 10 11 8 7 4 6 6 7 11 11 11 19 26 38 51 61 72 78
24 21 19 18 18 19 23 28 27 25 22 19 13 12 10 10 8 8 7 6 8 9 11 15 15 16 22 27 31 42 53 63
20 19 18 19 19 22 28 30 26 27 20 19 16 16 12 14 13 14 14 13 12 16 16 18 19 19 20 23 22 26 32 44

GFSFLT1_250_spd_135.txt.gz
Wind_Speed
72 73 74 76 79 81 82 83 86 87 87 88 89 91 93 93 95 93 92 89 88 85 81 78 70 60 61 61 61 60 46 43
80 80 82 84 87 88 89 89 90 90 92 93 95 95 96 96 98 99 99 97 94 91 88 83 78 70 67 68 73 69 67 65
89 92 92 91 92 93 95 97 98 98 98 99 100 100 101 102 102 104 105 103 100 99 95 91 84 77 76 73 82 81 79 73
95 96 97 100 102 103 104 104 101 100 100 99 97 97 99 103 107 105 103 104 106 105 102 99 97 90 86 78 91 87 82 81
103 105 105 107 108 107 105 103 99 99 97 97 96 99 98 98 96 96 97 97 99 100 101 100 98 89 86 85 97 100 95 84
103 103 105 108 106 103 101 98 97 97 96 96 94 93 92 89 88 85 87 89 91 89 91 93 92 89 85 88 92 106 104 92
106 105 107 106 104 101 99 98 97 95 92 90 86 83 79 76 74 74 76 81 84 85 82 82 85 84 82 84 90 113 110 102
109 107 108 104 101 98 95 92 89 87 81 77 74 70 66 64 65 65 66 68 71 72 73 70 72 77 79 83 86 100 111 113
104 104 102 98 93 88 85 83 79 75 68 63 61 56 58 55 53 53 56 58 60 61 61 61 64 70 76 77 83 92 98 120
99 98 93 89 85 81 77 73 68 61 57 52 48 51 50 45 43 43 44 46 47 48 51 52 55 62 69 70 76 87 96 119
94 88 85 79 75 71 66 61 57 50 41 40 43 44 39 39 38 38 38 38 37 39 40 42 45 51 58 63 69 81 94 116
82 76 72 69 65 58 54 50 42 35 34 35 36 33 34 33 32 33 34 33 31 33 34 34 36 41 47 52 61 74 85 113
68 66 63 55 50 46 44 41 33 30 30 29 27 28 27 24 23 22 23 23 26 29 29 29 31 33 38 43 53 66 78 103
61 54 47 42 42 42 39 35 29 27 28 24 23 22 21 17 14 12 16 16 20 21 21 22 23 25 28 34 45 57 74 87
48 43 40 39 36 36 34 31 28 26 24 21 18 18 20 16 11 9 13 15 14 12 14 13 15 17 20 23 36 50 64 78
41 38 36 34 31 29 27 25 23 21 21 19 20 19 18 17 14 11 12 7 6 3 2 3 5 8 12 15 24 37 52 70
36 35 30 26 23 21 20 20 19 23 22 22 23 22 21 14 14 10 7 3 5 8 6 5 2 4 6 7 12 24 41 58
33 30 24 20 17 16 17 20 23 24 24 23 22 24 19 14 13 11 11 8 5 7 8 11 11 9 9 11 11 18 27 43
28 25 20 17 14 16 21 24 27 28 25 23 23 26 19 16 13 12 11 11 11 10 10 11 12 12 13 12 18 19 20 33

GFSFLT1_250_spd_138.txt.gz
Wind_Speed
68 69 72 74 76 78 79 80 82 82 85 89 91 91 90 90 90 91 91 90 88 87 82 79 75 72 67 67 67 61 66 68
76 78 80 81 82 83 84 86 88 90 92 93 95 95 95 96 95 95 95 96 94 89 90 87 82 78 75 71 74 74 72 74
83 82 84 86 87 90 92 94 96 97 99 101 101 101 101 101 99 97 94 95 95 93 89 89 88 84 82 81 77 79 77 81
85 88 89 90 92 94 97 99 102 103 101 100 98 97 97 97 96 97 96 95 94 95 97 95 94 92 89 87 85 82 86 88
94 94 97 101 103 104 105 104 103 102 100 97 94 94 93 92 93 95 96 97 98 98 94 96 99 97 96 91 90 89 92 91
100 102 109 110 110 110 109 105 101 98 95 93 93 90 89 88 90 91 94 96 97 98 98 94 92 97 95 95 97 96 94 97
106 110 114 113 110 109 104 102 97 94 92 89 88 85 83 82 82 84 85 87 87 86 87 87 85 84 88 89 93 97 96 97
110 114 114 108 104 101 99 95 91 89 84 80 80 76 73 72 72 72 70 69 69 70 70 72 73 72 75 81 83 86 93 97
112 111 109 105 99 95 91 88 82 76 72 69 66 64 61 60 60 58 55 55 57 58 59 59 60 62 66 73 78 79 85 90
113 109 103 96 90 86 82 77 71 67 64 62 58 54 52 50 47 45 43 43 45 46 47 48 49 52 56 63 70 76 79 84
109 101 93 86 81 75 69 65 62 61 56 51 48 46 43 37 36 35 35 36 36 35 36 38 40 42 45 52 59 65 72 79
97 89 82 74 68 64 62 60 55 51 46 41 38 38 31 30 28 27 28 26 29 28 26 28 29 32 35 41 48 53 61 71
86 76 69 64 60 58 53 50 46 42 37 34 32 26 25 24 20 18 17 22 24 20 18 19 21 24 28 34 40 45 53 59
74 66 61 57 53 48 46 41 38 35 31 27 24 21 21 18 16 16 15 15 16 14 11 13 15 17 21 24 29 34 40 48
63 58 54 48 44 42 39 35 32 30 27 25 21 19 18 18 18 14 12 14 15 12 7 4 6 8 10 13 18 24 30 37
55 49 42 40 37 33 30 29 27 24 23 20 18 18 19 20 19 15 12 13 12 9 6 5 2 2 4 5 8 12 18 26
45 38 34 36 31 26 24 23 21 18 18 19 19 21 21 21 17 13 9 11 7 6 8 7 4 3 3 2 3 4 7 13
35 33 33 32 27 22 20 18 17 19 22 22 25 24 23 21 20 13 12 12 8 6 7 7 10 8 7 7 6 7 6 9
31 31 32 29 24 19 19 18 17 22 27 25 25 23 24 21 21 16 15 14 14 10 9 10 11 11 12 13 13 12 13 14

GFSFLT1_250_spd_141.txt.gz
Wind_Speed
72 70 69 70 75 77 78 80 82 84 85 85 86 88 91 93 94 95 95 95 95 94 90 90 89 86 84 82 80 77 71 75
73 76 79 83 86 88 89 88 87 88 90 93 94 96 99 100 101 102 102 102 100 97 96 93 91 92 92 88 86 79 78 80
77 80 82 84 86 88 91 93 96 99 101 103 106 107 107 108 107 106 106 105 103 100 98 98 95 95 94 95 94 88 81 83
83 85 88 90 92 94 97 100 102 104 107 111 112 110 108 106 105 103 106 103 103 101 98 97 99 98 96 97 94 94 88 87
88 89 90 92 95 99 103 108 111 113 113 113 113 109 104 98 96 95 95 97 99 99 97 95 95 98 99 97 97 95 93 89
90 92 94 97 101 105 108 110 114 116 118 116 111 101 95 90 89 88 88 89 91 91 94 94 92 91 94 96 96 94 93 92
96 99 102 104 107 108 110 113 115 116 113 107 98 93 87 83 80 78 78 79 82 82 83 85 86 87 87 89 92 94 95 94
101 105 107 108 109 111 114 114 113 105 98 93 87 81 76 73 70 70 69 70 70 69 70 71 74 76 79 78 81 86 90 93
108 111 110 110 112 114 114 108 99 90 85 79 73 68 65 62 60 60 58 55 56 55 56 58 59 61 63 65 65 71 76 80
111 111 112 114 112 109 105 95 84 76 72 67 62 60 57 54 50 44 42 41 41 42 42 45 49 52 55 56 57 60 64 69
114 115 116 114 108 103 91 79 70 66 63 59 56 51 47 42 36 33 31 30 29 30 34 34 35 39 43 45 46 48 52 58
116 115 114 107 99 88 78 67 63 60 56 49 44 39 36 30 27 26 24 21 21 23 24 26 28 30 33 35 37 39 41 46
115 111 105 98 86 74 68 61 58 52 46 40 35 32 28 25 21 19 16 14 17 19 18 21 21 22 24 26 29 31 34 37
109 100 97 83 74 66 61 56 50 44 37 32 28 25 21 20 16 14 12 11 14 17 17 16 17 14 14 17 21 25 29 33
100 91 83 73 64 60 55 48 42 36 30 25 23 21 18 16 14 15 13 13 15 13 13 12 10 8 8 7 9 14 19 24
88 82 73 61 55 52 48 41 35 28 26 21 19 21 18 17 17 16 15 14 10 10 9 11 10 9 8 4 3 6 8 9
76 68 59 51 47 44 40 36 29 25 22 19 18 19 21 22 19 15 14 14 11 11 11 8 8 6 4 5 5 6 6 5
63 57 49 45 40 40 34 29 25 22 20 18 20 22 23 21 22 20 14 15 13 10 9 9 9 9 9 9 8 9 10 11
54 47 43 38 36 35 30 26 24 20 19 21 21 22 23 22 23 21 20 20 18 17 15 12 12 11 11 10 11 11 13 15